Wetterdaten: Mittwoch, 30.06.2021
Datum Zeit Temp. Aussen Temp. o. S. Temp +5cm Feuchte Auss Luftdruck Regen Sonnenschein Regendauer Solar Windben Empfang
30.06.2021 00:00 16,2 C 15,0 C 15,0 C 99 % 1011,4 hPa 0,0 l/m 0 min 2 min 0 W/m 3,2 km/h (1 Bft) 100,00 %
30.06.2021 00:02 16,2 C 15,0 C 15,0 C 99 % 1011,5 hPa 0,0 l/m 0 min 2 min 0 W/m 9,7 km/h (2 Bft) 97,50 %
30.06.2021 00:04 16,2 C 15,0 C 15,0 C 99 % 1011,5 hPa 0,0 l/m 0 min 2 min 0 W/m 9,7 km/h (2 Bft) 100,00 %
30.06.2021 00:08 16,1 C 15,0 C 15,0 C 99 % 1011,5 hPa 0,2 l/m 0 min 4 min 0 W/m 12,9 km/h (3 Bft) 98,94 %
30.06.2021 00:10 16,1 C 15,0 C 15,0 C 99 % 1011,5 hPa 0,0 l/m 0 min 2 min 0 W/m 16,1 km/h (3 Bft) 100,00 %
30.06.2021 00:12 16,0 C 15,0 C 15,0 C 99 % 1011,5 hPa 0,0 l/m 0 min 2 min 0 W/m 9,7 km/h (2 Bft) 100,00 %
30.06.2021 00:14 16,0 C 15,0 C 15,0 C 99 % 1011,5 hPa 0,0 l/m 0 min 2 min 0 W/m 6,4 km/h (2 Bft) 100,00 %
30.06.2021 00:16 16,0 C 15,0 C 15,0 C 99 % 1011,4 hPa 0,0 l/m 0 min 2 min 0 W/m 12,9 km/h (3 Bft) 100,00 %
30.06.2021 00:18 16,0 C 15,0 C 15,0 C 99 % 1011,5 hPa 0,2 l/m 0 min 2 min 0 W/m 12,9 km/h (3 Bft) 100,00 %
30.06.2021 00:20 16,0 C 15,0 C 15,0 C 99 % 1011,5 hPa 0,0 l/m 0 min 2 min 0 W/m 12,9 km/h (3 Bft) 97,87 %
30.06.2021 00:22 16,0 C 15,0 C 15,0 C 99 % 1011,5 hPa 0,0 l/m 0 min 2 min 0 W/m 6,4 km/h (2 Bft) 95,74 %
30.06.2021 00:24 16,0 C 15,0 C 15,0 C 99 % 1011,5 hPa 0,0 l/m 0 min 2 min 0 W/m 3,2 km/h (1 Bft) 97,87 %
30.06.2021 00:26 15,9 C 15,0 C 15,0 C 99 % 1011,5 hPa 0,2 l/m 0 min 2 min 0 W/m 12,9 km/h (3 Bft) 100,00 %
30.06.2021 00:28 15,9 C 15,0 C 15,0 C 99 % 1011,5 hPa 0,0 l/m 0 min 2 min 0 W/m 3,2 km/h (1 Bft) 95,65 %
30.06.2021 00:30 15,9 C 15,0 C 15,0 C 99 % 1011,5 hPa 0,2 l/m 0 min 2 min 0 W/m 6,4 km/h (2 Bft) 97,87 %
30.06.2021 00:32 15,9 C 15,0 C 15,0 C 99 % 1011,5 hPa 0,0 l/m 0 min 2 min 0 W/m 6,4 km/h (2 Bft) 95,74 %
30.06.2021 00:34 15,9 C 15,0 C 15,0 C 99 % 1011,5 hPa 0,4 l/m 0 min 2 min 0 W/m 12,9 km/h (3 Bft) 97,87 %
30.06.2021 00:36 15,8 C 15,0 C 15,0 C 99 % 1011,5 hPa 0,0 l/m 0 min 2 min 0 W/m 6,4 km/h (2 Bft) 97,87 %
30.06.2021 00:38 15,8 C 14,4 C 15,0 C 99 % 1011,5 hPa 0,0 l/m 0 min 2 min 0 W/m 9,7 km/h (2 Bft) 97,83 %
30.06.2021 00:40 15,7 C 14,4 C 15,0 C 99 % 1011,5 hPa 0,2 l/m 0 min 2 min 0 W/m 6,4 km/h (2 Bft) 97,87 %
30.06.2021 00:42 15,7 C 14,4 C 15,0 C 99 % 1011,5 hPa 0,2 l/m 0 min 2 min 0 W/m 16,1 km/h (3 Bft) 97,87 %
30.06.2021 00:44 15,7 C 14,4 C 15,0 C 99 % 1011,5 hPa 0,0 l/m 0 min 2 min 0 W/m 6,4 km/h (2 Bft) 97,87 %
30.06.2021 00:46 15,7 C 14,4 C 15,0 C 99 % 1011,5 hPa 0,2 l/m 0 min 2 min 0 W/m 6,4 km/h (2 Bft) 97,87 %
30.06.2021 00:48 15,7 C 14,4 C 15,0 C 99 % 1011,5 hPa 0,0 l/m 0 min 2 min 0 W/m 3,2 km/h (1 Bft) 97,87 %
30.06.2021 00:50 15,7 C 14,4 C 15,0 C 99 % 1011,5 hPa 0,2 l/m 0 min 2 min 0 W/m 3,2 km/h (1 Bft) 95,65 %
30.06.2021 00:52 15,7 C 14,4 C 15,0 C 99 % 1011,5 hPa 0,0 l/m 0 min 2 min 0 W/m 12,9 km/h (3 Bft) 95,74 %
30.06.2021 00:54 15,7 C 14,4 C 15,0 C 99 % 1011,5 hPa 0,0 l/m 0 min 2 min 0 W/m 3,2 km/h (1 Bft) 97,87 %
30.06.2021 00:56 15,7 C 15,0 C 15,0 C 99 % 1011,4 hPa 0,0 l/m 0 min 2 min 0 W/m 3,2 km/h (1 Bft) 95,74 %
30.06.2021 00:58 15,7 C 15,0 C 15,0 C 99 % 1011,4 hPa 0,0 l/m 0 min 2 min 0 W/m 6,4 km/h (2 Bft) 97,87 %
30.06.2021 01:00 15,7 C 15,0 C 15,0 C 99 % 1011,3 hPa 0,2 l/m 0 min 2 min 0 W/m 0,0 km/h (0 Bft) 97,87 %
30.06.2021 01:02 15,8 C 15,0 C 15,0 C 99 % 1011,4 hPa 0,0 l/m 0 min 2 min 0 W/m 3,2 km/h (1 Bft) 97,83 %
30.06.2021 01:04 15,8 C 15,0 C 15,0 C 99 % 1011,3 hPa 0,0 l/m 0 min 2 min 0 W/m 6,4 km/h (2 Bft) 97,87 %
30.06.2021 01:06 15,8 C 15,0 C 15,0 C 99 % 1011,2 hPa 0,0 l/m 0 min 2 min 0 W/m 3,2 km/h (1 Bft) 93,62 %
30.06.2021 01:08 15,8 C 14,4 C 15,0 C 99 % 1011,2 hPa 0,0 l/m 0 min 2 min 0 W/m 3,2 km/h (1 Bft) 100,00 %
30.06.2021 01:10 15,8 C 15,0 C 15,0 C 99 % 1011,1 hPa 0,2 l/m 0 min 2 min 0 W/m 3,2 km/h (1 Bft) 100,00 %
30.06.2021 01:12 15,8 C 15,0 C 15,0 C 99 % 1011,1 hPa 0,0 l/m 0 min 2 min 0 W/m 3,2 km/h (1 Bft) 100,00 %
30.06.2021 01:14 15,8 C 14,4 C 15,0 C 99 % 1011,1 hPa 0,0 l/m 0 min 2 min 0 W/m 3,2 km/h (1 Bft) 97,83 %
30.06.2021 01:16 15,8 C 14,4 C 15,0 C 99 % 1011,0 hPa 0,0 l/m 0 min 2 min 0 W/m 6,4 km/h (2 Bft) 100,00 %
30.06.2021 01:18 15,8 C 15,0 C 15,0 C 99 % 1011,0 hPa 0,0 l/m 0 min 2 min 0 W/m 6,4 km/h (2 Bft) 100,00 %
30.06.2021 01:20 15,8 C 14,4 C 15,0 C 99 % 1011,0 hPa 0,0 l/m 0 min 2 min 0 W/m 3,2 km/h (1 Bft) 100,00 %
30.06.2021 01:22 15,7 C 14,4 C 15,0 C 99 % 1010,9 hPa 0,0 l/m 0 min 2 min 0 W/m 6,4 km/h (2 Bft) 97,87 %
30.06.2021 01:24 15,7 C 14,4 C 15,0 C 99 % 1010,9 hPa 0,0 l/m 0 min 2 min 0 W/m 12,9 km/h (3 Bft) 100,00 %
30.06.2021 01:26 15,7 C 14,4 C 15,0 C 99 % 1010,9 hPa 0,0 l/m 0 min 2 min 0 W/m 3,2 km/h (1 Bft) 100,00 %
30.06.2021 01:28 15,6 C 14,4 C 15,0 C 99 % 1010,8 hPa 0,0 l/m 0 min 2 min 0 W/m 16,1 km/h (3 Bft) 100,00 %
30.06.2021 01:30 15,6 C 14,4 C 15,0 C 99 % 1010,8 hPa 0,0 l/m 0 min 2 min 0 W/m 9,7 km/h (2 Bft) 100,00 %
30.06.2021 01:32 15,6 C 14,4 C 15,0 C 99 % 1010,7 hPa 0,0 l/m 0 min 2 min 0 W/m 9,7 km/h (2 Bft) 100,00 %
30.06.2021 01:34 15,5 C 14,4 C 15,0 C 99 % 1010,7 hPa 0,2 l/m 0 min 2 min 0 W/m 12,9 km/h (3 Bft) 100,00 %
30.06.2021 01:36 15,5 C 14,4 C 15,0 C 99 % 1010,6 hPa 0,0 l/m 0 min 2 min 0 W/m 9,7 km/h (2 Bft) 100,00 %
30.06.2021 01:38 15,5 C 14,4 C 15,0 C 99 % 1010,6 hPa 0,0 l/m 0 min 2 min 0 W/m 9,7 km/h (2 Bft) 100,00 %
30.06.2021 01:40 15,4 C 14,4 C 15,0 C 99 % 1010,5 hPa 0,0 l/m 0 min 2 min 0 W/m 12,9 km/h (3 Bft) 100,00 %
30.06.2021 01:42 15,4 C 14,4 C 15,0 C 99 % 1010,4 hPa 0,0 l/m 0 min 2 min 0 W/m 12,9 km/h (3 Bft) 100,00 %
30.06.2021 01:44 15,4 C 14,4 C 15,0 C 99 % 1010,4 hPa 0,2 l/m 0 min 2 min 0 W/m 9,7 km/h (2 Bft) 100,00 %
30.06.2021 01:46 15,3 C 14,4 C 15,0 C 99 % 1010,4 hPa 0,0 l/m 0 min 2 min 0 W/m 9,7 km/h (2 Bft) 95,74 %
30.06.2021 01:48 15,3 C 14,4 C 15,0 C 99 % 1010,4 hPa 0,0 l/m 0 min 2 min 0 W/m 12,9 km/h (3 Bft) 100,00 %
30.06.2021 01:50 15,3 C 14,4 C 15,0 C 99 % 1010,5 hPa 0,0 l/m 0 min 2 min 0 W/m 6,4 km/h (2 Bft) 100,00 %
30.06.2021 01:52 15,3 C 14,4 C 15,0 C 99 % 1010,4 hPa 0,0 l/m 0 min 2 min 0 W/m 16,1 km/h (3 Bft) 100,00 %
30.06.2021 01:54 15,3 C 14,4 C 15,0 C 99 % 1010,4 hPa 0,0 l/m 0 min 2 min 0 W/m 16,1 km/h (3 Bft) 97,87 %
30.06.2021 01:56 15,3 C 14,4 C 15,0 C 99 % 1010,4 hPa 0,0 l/m 0 min 2 min 0 W/m 12,9 km/h (3 Bft) 100,00 %
30.06.2021 01:58 15,2 C 14,4 C 15,0 C 99 % 1010,4 hPa 0,2 l/m 0 min 2 min 0 W/m 9,7 km/h (2 Bft) 100,00 %
30.06.2021 02:00 15,2 C 14,4 C 15,0 C 99 % 1010,5 hPa 0,0 l/m 0 min 2 min 0 W/m 16,1 km/h (3 Bft) 100,00 %
30.06.2021 02:02 15,2 C 14,4 C 15,0 C 99 % 1010,6 hPa 0,0 l/m 0 min 2 min 0 W/m 6,4 km/h (2 Bft) 100,00 %
30.06.2021 02:04 15,3 C 14,4 C 15,0 C 99 % 1010,6 hPa 0,0 l/m 0 min 2 min 0 W/m 6,4 km/h (2 Bft) 97,87 %
30.06.2021 02:06 15,3 C 14,4 C 15,0 C 99 % 1010,8 hPa 0,0 l/m 0 min 2 min 0 W/m 6,4 km/h (2 Bft) 97,87 %
30.06.2021 02:08 15,2 C 14,4 C 15,0 C 99 % 1010,9 hPa 0,2 l/m 0 min 2 min 0 W/m 6,4 km/h (2 Bft) 97,87 %
30.06.2021 02:10 15,2 C 14,4 C 15,0 C 99 % 1011,0 hPa 0,0 l/m 0 min 2 min 0 W/m 6,4 km/h (2 Bft) 97,87 %
30.06.2021 02:12 15,2 C 14,4 C 15,0 C 99 % 1011,1 hPa 0,0 l/m 0 min 2 min 0 W/m 6,4 km/h (2 Bft) 97,87 %
30.06.2021 02:14 15,2 C 14,4 C 15,0 C 99 % 1011,1 hPa 0,0 l/m 0 min 2 min 0 W/m 6,4 km/h (2 Bft) 95,65 %
30.06.2021 02:16 15,2 C 14,4 C 15,0 C 99 % 1011,1 hPa 0,2 l/m 0 min 2 min 0 W/m 3,2 km/h (1 Bft) 97,87 %
30.06.2021 02:18 15,2 C 14,4 C 15,0 C 99 % 1011,0 hPa 0,0 l/m 0 min 2 min 0 W/m 3,2 km/h (1 Bft) 93,62 %
30.06.2021 02:20 15,2 C 14,4 C 15,0 C 99 % 1011,0 hPa 0,0 l/m 0 min 2 min 0 W/m 3,2 km/h (1 Bft) 95,74 %
30.06.2021 02:22 15,3 C 14,4 C 15,0 C 99 % 1010,9 hPa 0,0 l/m 0 min 2 min 0 W/m 3,2 km/h (1 Bft) 97,87 %
30.06.2021 02:24 15,3 C 14,4 C 15,0 C 99 % 1010,9 hPa 0,0 l/m 0 min 0 min 0 W/m 3,2 km/h (1 Bft) 97,73 %
30.06.2021 02:26 15,3 C 14,4 C 15,0 C 99 % 1010,8 hPa 0,0 l/m 0 min 0 min 0 W/m 3,2 km/h (1 Bft) 95,74 %
30.06.2021 02:28 15,4 C 14,4 C 15,0 C 100 % 1010,9 hPa 0,0 l/m 0 min 0 min 0 W/m 3,2 km/h (1 Bft) 95,74 %
30.06.2021 02:30 15,4 C 14,4 C 15,0 C 100 % 1010,8 hPa 0,0 l/m 0 min 0 min 0 W/m 3,2 km/h (1 Bft) 97,87 %
30.06.2021 02:32 15,4 C 14,4 C 15,0 C 100 % 1010,9 hPa 0,0 l/m 0 min 0 min 0 W/m 0,0 km/h (0 Bft) 91,49 %
30.06.2021 02:34 15,4 C 14,4 C 15,0 C 100 % 1010,9 hPa 0,0 l/m 0 min 0 min 0 W/m 3,2 km/h (1 Bft) 97,87 %
30.06.2021 02:36 15,4 C 14,4 C 15,0 C 100 % 1010,8 hPa 0,0 l/m 0 min 0 min 0 W/m 3,2 km/h (1 Bft) 97,83 %
30.06.2021 02:38 15,4 C 14,4 C 15,0 C 100 % 1010,8 hPa 0,0 l/m 0 min 0 min 0 W/m 6,4 km/h (2 Bft) 98,25 %
30.06.2021 02:40 15,5 C 14,4 C 15,0 C 100 % 1010,7 hPa 0,0 l/m 0 min 0 min 0 W/m 3,2 km/h (1 Bft) 97,87 %
30.06.2021 02:42 15,5 C 14,4 C 15,0 C 100 % 1010,7 hPa 0,0 l/m 0 min 0 min 0 W/m 0,0 km/h (0 Bft) 100,00 %
30.06.2021 02:44 15,5 C 14,4 C 15,0 C 100 % 1010,7 hPa 0,0 l/m 0 min 0 min 0 W/m 3,2 km/h (1 Bft) 97,87 %
30.06.2021 02:46 15,5 C 14,4 C 15,0 C 100 % 1010,7 hPa 0,0 l/m 0 min 0 min 0 W/m 0,0 km/h (0 Bft) 95,65 %
30.06.2021 02:48 15,5 C 14,4 C 15,0 C 100 % 1010,7 hPa 0,0 l/m 0 min 0 min 0 W/m 3,2 km/h (1 Bft) 100,00 %
30.06.2021 02:50 15,4 C 14,4 C 15,6 C 100 % 1010,6 hPa 0,0 l/m 0 min 0 min 0 W/m 3,2 km/h (1 Bft) 97,87 %
30.06.2021 02:52 15,5 C 14,4 C 15,6 C 100 % 1010,6 hPa 0,0 l/m 0 min 0 min 0 W/m 3,2 km/h (1 Bft) 100,00 %
30.06.2021 02:54 15,5 C 14,4 C 15,6 C 100 % 1010,6 hPa 0,0 l/m 0 min 0 min 0 W/m 0,0 km/h (0 Bft) 100,00 %
30.06.2021 02:56 15,5 C 14,4 C 15,6 C 100 % 1010,7 hPa 0,0 l/m 0 min 0 min 0 W/m 0,0 km/h (0 Bft) 100,00 %
30.06.2021 02:58 15,5 C 14,4 C 15,6 C 100 % 1010,7 hPa 0,0 l/m 0 min 2 min 0 W/m 0,0 km/h (0 Bft) 100,00 %
30.06.2021 03:00 15,5 C 14,4 C 15,6 C 100 % 1010,7 hPa 0,0 l/m 0 min 0 min 0 W/m 6,4 km/h (2 Bft) 100,00 %
30.06.2021 03:02 15,4 C 14,4 C 15,6 C 100 % 1010,8 hPa 0,2 l/m 0 min 0 min 0 W/m 6,4 km/h (2 Bft) 100,00 %
30.06.2021 03:04 15,4 C 14,4 C 15,6 C 100 % 1010,7 hPa 0,0 l/m 0 min 2 min 0 W/m 3,2 km/h (1 Bft) 100,00 %
30.06.2021 03:06 15,4 C 14,4 C 15,6 C 100 % 1010,8 hPa 0,0 l/m 0 min 0 min 0 W/m 6,4 km/h (2 Bft) 100,00 %
30.06.2021 03:08 15,4 C 14,4 C 15,6 C 100 % 1010,8 hPa 0,0 l/m 0 min 0 min 0 W/m 3,2 km/h (1 Bft) 100,00 %
30.06.2021 03:10 15,4 C 14,4 C 15,6 C 100 % 1010,8 hPa 0,0 l/m 0 min 0 min 0 W/m 3,2 km/h (1 Bft) 100,00 %
30.06.2021 03:12 15,4 C 14,4 C 15,6 C 100 % 1010,7 hPa 0,0 l/m 0 min 0 min 0 W/m 9,7 km/h (2 Bft) 97,87 %
30.06.2021 03:14 15,4 C 14,4 C 15,6 C 100 % 1010,7 hPa 0,0 l/m 0 min 0 min 0 W/m 9,7 km/h (2 Bft) 97,87 %
30.06.2021 03:16 15,4 C 14,4 C 15,6 C 100 % 1010,6 hPa 0,0 l/m 0 min 0 min 0 W/m 6,4 km/h (2 Bft) 97,87 %
30.06.2021 03:18 15,4 C 14,4 C 15,6 C 100 % 1010,6 hPa 0,0 l/m 0 min 0 min 0 W/m 9,7 km/h (2 Bft) 97,87 %
30.06.2021 03:20 15,4 C 14,4 C 15,6 C 100 % 1010,6 hPa 0,0 l/m 0 min 0 min 0 W/m 12,9 km/h (3 Bft) 97,87 %
30.06.2021 03:22 15,4 C 14,4 C 15,6 C 100 % 1010,6 hPa 0,0 l/m 0 min 0 min 0 W/m 0,0 km/h (0 Bft) 97,83 %
30.06.2021 03:24 15,4 C 14,4 C 15,6 C 100 % 1010,5 hPa 0,0 l/m 0 min 0 min 0 W/m 3,2 km/h (1 Bft) 97,92 %
30.06.2021 03:26 15,4 C 14,4 C 15,6 C 100 % 1010,5 hPa 0,0 l/m 0 min 0 min 0 W/m 9,7 km/h (2 Bft) 96,23 %
30.06.2021 03:28 15,4 C 14,4 C 15,6 C 100 % 1010,5 hPa 0,0 l/m 0 min 0 min 0 W/m 6,4 km/h (2 Bft) 97,87 %
30.06.2021 03:30 15,4 C 14,4 C 15,6 C 100 % 1010,5 hPa 0,0 l/m 0 min 0 min 0 W/m 3,2 km/h (1 Bft) 97,87 %
30.06.2021 03:32 15,4 C 14,4 C 15,6 C 100 % 1010,5 hPa 0,0 l/m 0 min 0 min 0 W/m 3,2 km/h (1 Bft) 95,65 %
30.06.2021 03:34 15,4 C 14,4 C 15,6 C 100 % 1010,5 hPa 0,0 l/m 0 min 0 min 0 W/m 6,4 km/h (2 Bft) 95,74 %
30.06.2021 03:36 15,4 C 14,4 C 15,6 C 100 % 1010,5 hPa 0,0 l/m 0 min 0 min 0 W/m 6,4 km/h (2 Bft) 93,62 %
30.06.2021 03:38 15,4 C 14,4 C 15,6 C 100 % 1010,5 hPa 0,0 l/m 0 min 0 min 0 W/m 6,4 km/h (2 Bft) 93,62 %
30.06.2021 03:40 15,4 C 14,4 C 15,6 C 100 % 1010,5 hPa 0,0 l/m 0 min 0 min 0 W/m 6,4 km/h (2 Bft) 95,00 %
30.06.2021 03:42 15,4 C 14,4 C 15,6 C 100 % 1010,5 hPa 0,0 l/m 0 min 0 min 0 W/m 3,2 km/h (1 Bft) 91,49 %
30.06.2021 03:44 15,4 C 14,4 C 15,6 C 100 % 1010,4 hPa 0,0 l/m 0 min 0 min 0 W/m 3,2 km/h (1 Bft) 95,74 %
30.06.2021 03:46 15,4 C 14,4 C 15,6 C 100 % 1010,3 hPa 0,0 l/m 0 min 0 min 0 W/m 3,2 km/h (1 Bft) 93,62 %
30.06.2021 03:48 15,4 C 14,4 C 15,6 C 100 % 1010,2 hPa 0,0 l/m 0 min 0 min 0 W/m 3,2 km/h (1 Bft) 95,74 %
30.06.2021 03:50 15,4 C 14,4 C 15,6 C 100 % 1010,2 hPa 0,0 l/m 0 min 0 min 0 W/m 3,2 km/h (1 Bft) 95,65 %
30.06.2021 03:52 15,4 C 14,4 C 15,6 C 100 % 1010,2 hPa 0,0 l/m 0 min 0 min 0 W/m 3,2 km/h (1 Bft) 95,74 %
30.06.2021 03:54 15,4 C 14,4 C 15,6 C 100 % 1010,2 hPa 0,0 l/m 0 min 0 min 0 W/m 3,2 km/h (1 Bft) 96,36 %
30.06.2021 03:56 15,4 C 14,4 C 15,6 C 100 % 1010,2 hPa 0,0 l/m 0 min 0 min 0 W/m 3,2 km/h (1 Bft) 95,65 %
30.06.2021 03:58 15,4 C 14,4 C 15,6 C 100 % 1010,2 hPa 0,0 l/m 0 min 0 min 0 W/m 3,2 km/h (1 Bft) 93,62 %
30.06.2021 04:00 15,4 C 14,4 C 15,6 C 100 % 1010,2 hPa 0,0 l/m 0 min 0 min 0 W/m 6,4 km/h (2 Bft) 97,87 %
30.06.2021 04:02 15,4 C 14,4 C 15,6 C 100 % 1010,2 hPa 0,0 l/m 0 min 0 min 0 W/m 3,2 km/h (1 Bft) 100,00 %
30.06.2021 04:04 15,4 C 14,4 C 15,6 C 100 % 1010,2 hPa 0,0 l/m 0 min 0 min 0 W/m 6,4 km/h (2 Bft) 100,00 %
30.06.2021 04:06 15,4 C 14,4 C 15,6 C 100 % 1010,2 hPa 0,0 l/m 0 min 0 min 0 W/m 6,4 km/h (2 Bft) 95,74 %
30.06.2021 04:08 15,4 C 14,4 C 15,6 C 100 % 1010,3 hPa 0,0 l/m 0 min 0 min 0 W/m 6,4 km/h (2 Bft) 95,83 %
30.06.2021 04:10 15,4 C 14,4 C 15,6 C 100 % 1010,4 hPa 0,0 l/m 0 min 0 min 0 W/m 9,7 km/h (2 Bft) 97,87 %
30.06.2021 04:12 15,4 C 14,4 C 15,6 C 100 % 1010,4 hPa 0,0 l/m 0 min 0 min 0 W/m 3,2 km/h (1 Bft) 98,11 %
30.06.2021 04:14 15,4 C 14,4 C 15,6 C 100 % 1010,4 hPa 0,0 l/m 0 min 0 min 0 W/m 6,4 km/h (2 Bft) 97,87 %
30.06.2021 04:16 15,4 C 14,4 C 15,6 C 100 % 1010,3 hPa 0,0 l/m 0 min 0 min 0 W/m 3,2 km/h (1 Bft) 95,83 %
30.06.2021 04:18 15,4 C 14,4 C 15,6 C 100 % 1010,3 hPa 0,0 l/m 0 min 0 min 0 W/m 6,4 km/h (2 Bft) 97,87 %
30.06.2021 04:20 15,4 C 14,4 C 15,6 C 100 % 1010,3 hPa 0,0 l/m 0 min 0 min 0 W/m 3,2 km/h (1 Bft) 97,87 %
30.06.2021 04:22 15,4 C 14,4 C 15,6 C 100 % 1010,3 hPa 0,0 l/m 0 min 0 min 0 W/m 0,0 km/h (0 Bft) 97,44 %
30.06.2021 04:24 15,4 C 14,4 C 15,6 C 100 % 1010,3 hPa 0,0 l/m 0 min 0 min 0 W/m 6,4 km/h (2 Bft) 97,83 %
30.06.2021 04:26 15,4 C 14,4 C 15,6 C 100 % 1010,2 hPa 0,0 l/m 0 min 0 min 0 W/m 3,2 km/h (1 Bft) 95,74 %
30.06.2021 04:28 15,4 C 14,4 C 15,6 C 100 % 1010,2 hPa 0,0 l/m 0 min 0 min 0 W/m 3,2 km/h (1 Bft) 97,87 %
30.06.2021 04:30 15,4 C 14,4 C 15,6 C 100 % 1010,2 hPa 0,0 l/m 0 min 0 min 0 W/m 0,0 km/h (0 Bft) 97,87 %
30.06.2021 04:32 15,4 C 14,4 C 15,6 C 100 % 1010,2 hPa 0,0 l/m 0 min 0 min 0 W/m 3,2 km/h (1 Bft) 97,87 %
30.06.2021 04:34 15,4 C 14,4 C 15,6 C 100 % 1010,2 hPa 0,0 l/m 0 min 0 min 0 W/m 3,2 km/h (1 Bft) 95,74 %
30.06.2021 04:36 15,4 C 14,4 C 15,6 C 100 % 1010,2 hPa 0,0 l/m 0 min 0 min 0 W/m 3,2 km/h (1 Bft) 97,78 %
30.06.2021 04:38 15,4 C 14,4 C 15,6 C 100 % 1010,2 hPa 0,0 l/m 0 min 0 min 0 W/m 3,2 km/h (1 Bft) 95,74 %
30.06.2021 04:40 15,4 C 14,4 C 15,6 C 100 % 1010,1 hPa 0,0 l/m 0 min 0 min 0 W/m 6,4 km/h (2 Bft) 95,74 %
30.06.2021 04:42 15,4 C 14,4 C 15,6 C 100 % 1010,1 hPa 0,0 l/m 0 min 0 min 0 W/m 3,2 km/h (1 Bft) 95,74 %
30.06.2021 04:44 15,4 C 14,4 C 15,6 C 100 % 1010,1 hPa 0,0 l/m 0 min 0 min 0 W/m 3,2 km/h (1 Bft) 97,87 %
30.06.2021 04:46 15,4 C 14,4 C 15,6 C 100 % 1010,1 hPa 0,0 l/m 0 min 0 min 0 W/m 6,4 km/h (2 Bft) 97,83 %
30.06.2021 04:48 15,4 C 14,4 C 15,6 C 100 % 1010,1 hPa 0,0 l/m 0 min 0 min 0 W/m 3,2 km/h (1 Bft) 97,87 %
30.06.2021 04:50 15,4 C 14,4 C 15,6 C 100 % 1010,1 hPa 0,0 l/m 0 min 0 min 0 W/m 3,2 km/h (1 Bft) 95,83 %
30.06.2021 04:52 15,4 C 14,4 C 15,6 C 100 % 1010,1 hPa 0,0 l/m 0 min 0 min 0 W/m 6,4 km/h (2 Bft) 97,87 %
30.06.2021 04:54 15,4 C 14,4 C 15,6 C 100 % 1010,1 hPa 0,0 l/m 0 min 0 min 0 W/m 3,2 km/h (1 Bft) 97,87 %
30.06.2021 04:56 15,4 C 14,4 C 15,6 C 100 % 1010,1 hPa 0,0 l/m 0 min 0 min 0 W/m 6,4 km/h (2 Bft) 93,62 %
30.06.2021 04:58 15,4 C 14,4 C 15,6 C 100 % 1010,1 hPa 0,0 l/m 0 min 0 min 0 W/m 6,4 km/h (2 Bft) 95,74 %
30.06.2021 05:00 15,4 C 14,4 C 15,6 C 100 % 1010,1 hPa 0,0 l/m 0 min 0 min 0 W/m 3,2 km/h (1 Bft) 95,65 %
30.06.2021 05:02 15,4 C 14,4 C 15,6 C 100 % 1010,1 hPa 0,0 l/m 0 min 0 min 0 W/m 3,2 km/h (1 Bft) 95,74 %
30.06.2021 05:04 15,4 C 14,4 C 15,6 C 100 % 1010,1 hPa 0,0 l/m 0 min 0 min 0 W/m 3,2 km/h (1 Bft) 95,74 %
30.06.2021 05:06 15,4 C 14,4 C 15,6 C 100 % 1010,1 hPa 0,0 l/m 0 min 0 min 0 W/m 3,2 km/h (1 Bft) 93,62 %
30.06.2021 05:08 15,4 C 14,4 C 15,6 C 100 % 1010,1 hPa 0,0 l/m 0 min 0 min 0 W/m 3,2 km/h (1 Bft) 95,74 %
30.06.2021 05:10 15,4 C 14,4 C 15,6 C 100 % 1010,1 hPa 0,0 l/m 0 min 0 min 0 W/m 3,2 km/h (1 Bft) 95,74 %
30.06.2021 05:12 15,4 C 14,4 C 15,6 C 100 % 1010,2 hPa 0,0 l/m 0 min 0 min 0 W/m 6,4 km/h (2 Bft) 93,48 %
30.06.2021 05:14 15,4 C 14,4 C 15,6 C 100 % 1010,1 hPa 0,0 l/m 0 min 0 min 0 W/m 6,4 km/h (2 Bft) 95,74 %
30.06.2021 05:16 15,4 C 14,4 C 15,6 C 100 % 1010,2 hPa 0,0 l/m 0 min 0 min 0 W/m 12,9 km/h (3 Bft) 95,74 %
30.06.2021 05:18 15,4 C 14,4 C 15,6 C 100 % 1010,2 hPa 0,0 l/m 0 min 0 min 0 W/m 12,9 km/h (3 Bft) 95,74 %
30.06.2021 05:20 15,4 C 14,4 C 15,6 C 100 % 1010,2 hPa 0,0 l/m 0 min 0 min 0 W/m 3,2 km/h (1 Bft) 93,62 %
30.06.2021 05:22 15,4 C 14,4 C 15,6 C 100 % 1010,2 hPa 0,0 l/m 0 min 0 min 0 W/m 6,4 km/h (2 Bft) 95,65 %
30.06.2021 05:24 15,4 C 14,4 C 15,6 C 100 % 1010,3 hPa 0,0 l/m 0 min 2 min 0 W/m 9,7 km/h (2 Bft) 95,74 %
30.06.2021 05:26 15,4 C 14,4 C 15,6 C 100 % 1010,2 hPa 0,0 l/m 0 min 0 min 0 W/m 6,4 km/h (2 Bft) 93,62 %
30.06.2021 05:28 15,3 C 14,4 C 15,6 C 100 % 1010,3 hPa 0,0 l/m 0 min 2 min 0 W/m 6,4 km/h (2 Bft) 95,74 %
30.06.2021 05:30 15,4 C 14,4 C 15,6 C 100 % 1010,2 hPa 0,0 l/m 0 min 2 min 0 W/m 3,2 km/h (1 Bft) 95,74 %
30.06.2021 05:32 15,3 C 14,4 C 15,6 C 100 % 1010,2 hPa 0,0 l/m 0 min 2 min 0 W/m 3,2 km/h (1 Bft) 93,62 %
30.06.2021 05:34 15,3 C 14,4 C 15,6 C 100 % 1010,3 hPa 0,0 l/m 0 min 2 min 0 W/m 6,4 km/h (2 Bft) 95,65 %
30.06.2021 05:36 15,3 C 14,4 C 15,6 C 100 % 1010,3 hPa 0,0 l/m 0 min 0 min 0 W/m 6,4 km/h (2 Bft) 95,74 %
30.06.2021 05:38 15,3 C 14,4 C 15,6 C 100 % 1010,3 hPa 0,0 l/m 0 min 0 min 0 W/m 6,4 km/h (2 Bft) 93,62 %
30.06.2021 05:40 15,3 C 14,4 C 15,6 C 100 % 1010,3 hPa 0,0 l/m 0 min 0 min 0 W/m 9,7 km/h (2 Bft) 95,74 %
30.06.2021 05:42 15,3 C 14,4 C 15,6 C 100 % 1010,3 hPa 0,0 l/m 0 min 0 min 0 W/m 6,4 km/h (2 Bft) 97,87 %
30.06.2021 05:44 15,3 C 14,4 C 15,6 C 100 % 1010,4 hPa 0,0 l/m 0 min 0 min 0 W/m 6,4 km/h (2 Bft) 97,87 %
30.06.2021 05:46 15,3 C 14,4 C 15,6 C 100 % 1010,4 hPa 0,0 l/m 0 min 0 min 0 W/m 6,4 km/h (2 Bft) 97,83 %
30.06.2021 05:48 15,3 C 14,4 C 15,6 C 100 % 1010,4 hPa 0,0 l/m 0 min 0 min 0 W/m 6,4 km/h (2 Bft) 100,00 %
30.06.2021 05:50 15,3 C 14,4 C 15,6 C 100 % 1010,4 hPa 0,0 l/m 0 min 0 min 0 W/m 9,7 km/h (2 Bft) 100,00 %
30.06.2021 05:52 15,3 C 14,4 C 15,6 C 100 % 1010,4 hPa 0,0 l/m 0 min 0 min 0 W/m 6,4 km/h (2 Bft) 97,87 %
30.06.2021 05:54 15,3 C 14,4 C 15,6 C 100 % 1010,5 hPa 0,0 l/m 0 min 0 min 0 W/m 6,4 km/h (2 Bft) 96,23 %
30.06.2021 05:56 15,3 C 14,4 C 15,6 C 100 % 1010,4 hPa 0,0 l/m 0 min 0 min 0 W/m 9,7 km/h (2 Bft) 100,00 %
30.06.2021 05:58 15,3 C 14,4 C 15,6 C 100 % 1010,4 hPa 0,0 l/m 0 min 0 min 0 W/m 9,7 km/h (2 Bft) 100,00 %
30.06.2021 06:00 15,3 C 14,4 C 15,6 C 100 % 1010,4 hPa 0,0 l/m 0 min 0 min 1 W/m 12,9 km/h (3 Bft) 100,00 %
30.06.2021 06:02 15,3 C 14,4 C 15,6 C 100 % 1010,4 hPa 0,0 l/m 0 min 0 min 6 W/m 9,7 km/h (2 Bft) 97,87 %
30.06.2021 06:04 15,3 C 14,4 C 15,6 C 100 % 1010,4 hPa 0,0 l/m 0 min 0 min 8 W/m 9,7 km/h (2 Bft) 100,00 %
30.06.2021 06:08 15,3 C 14,4 C 15,6 C 100 % 1010,5 hPa 0,0 l/m 0 min 0 min 10 W/m 9,7 km/h (2 Bft) 96,51 %
30.06.2021 06:10 15,3 C 14,4 C 15,6 C 100 % 1010,4 hPa 0,0 l/m 0 min 0 min 11 W/m 6,4 km/h (2 Bft) 95,65 %
30.06.2021 06:12 15,2 C 14,4 C 15,6 C 100 % 1010,4 hPa 0,0 l/m 0 min 0 min 9 W/m 9,7 km/h (2 Bft) 97,87 %
30.06.2021 06:14 15,2 C 14,4 C 15,6 C 100 % 1010,4 hPa 0,0 l/m 0 min 0 min 5 W/m 9,7 km/h (2 Bft) 97,87 %
30.06.2021 06:16 15,2 C 14,4 C 15,6 C 100 % 1010,5 hPa 0,0 l/m 0 min 0 min 5 W/m 6,4 km/h (2 Bft) 97,87 %
30.06.2021 06:18 15,2 C 14,4 C 15,6 C 100 % 1010,5 hPa 0,0 l/m 0 min 0 min 5 W/m 9,7 km/h (2 Bft) 95,74 %
30.06.2021 06:20 15,2 C 14,4 C 15,6 C 100 % 1010,5 hPa 0,0 l/m 0 min 0 min 5 W/m 6,4 km/h (2 Bft) 95,65 %
30.06.2021 06:22 15,2 C 14,4 C 15,6 C 100 % 1010,5 hPa 0,0 l/m 0 min 0 min 5 W/m 3,2 km/h (1 Bft) 95,74 %
30.06.2021 06:24 15,2 C 14,4 C 15,6 C 100 % 1010,5 hPa 0,0 l/m 0 min 0 min 5 W/m 6,4 km/h (2 Bft) 97,87 %
30.06.2021 06:26 15,2 C 14,4 C 15,6 C 100 % 1010,5 hPa 0,0 l/m 0 min 0 min 7 W/m 3,2 km/h (1 Bft) 95,74 %
30.06.2021 06:28 15,2 C 14,4 C 15,6 C 100 % 1010,5 hPa 0,0 l/m 0 min 0 min 7 W/m 9,7 km/h (2 Bft) 97,87 %
30.06.2021 06:30 15,2 C 14,4 C 15,6 C 100 % 1010,4 hPa 0,0 l/m 0 min 0 min 12 W/m 6,4 km/h (2 Bft) 97,87 %
30.06.2021 06:32 15,2 C 14,4 C 15,6 C 100 % 1010,4 hPa 0,0 l/m 0 min 0 min 16 W/m 3,2 km/h (1 Bft) 97,87 %
30.06.2021 06:34 15,3 C 14,4 C 15,6 C 100 % 1010,3 hPa 0,0 l/m 0 min 0 min 17 W/m 3,2 km/h (1 Bft) 97,83 %
30.06.2021 06:36 15,3 C 14,4 C 15,6 C 100 % 1010,3 hPa 0,0 l/m 0 min 0 min 21 W/m 6,4 km/h (2 Bft) 95,74 %
30.06.2021 06:38 15,3 C 14,4 C 15,6 C 100 % 1010,3 hPa 0,0 l/m 0 min 0 min 25 W/m 6,4 km/h (2 Bft) 97,87 %
30.06.2021 06:40 15,3 C 14,4 C 15,6 C 100 % 1010,3 hPa 0,0 l/m 0 min 0 min 26 W/m 6,4 km/h (2 Bft) 97,87 %
30.06.2021 06:42 15,3 C 14,4 C 15,6 C 100 % 1010,3 hPa 0,0 l/m 0 min 0 min 27 W/m 6,4 km/h (2 Bft) 97,87 %
30.06.2021 06:44 15,3 C 15,0 C 15,6 C 100 % 1010,3 hPa 0,0 l/m 0 min 0 min 31 W/m 3,2 km/h (1 Bft) 100,00 %
30.06.2021 06:46 15,3 C 14,4 C 15,6 C 100 % 1010,3 hPa 0,0 l/m 0 min 0 min 35 W/m 3,2 km/h (1 Bft) 97,87 %
30.06.2021 06:48 15,3 C 14,4 C 15,6 C 100 % 1010,3 hPa 0,0 l/m 0 min 0 min 38 W/m 6,4 km/h (2 Bft) 100,00 %
30.06.2021 06:50 15,3 C 14,4 C 15,6 C 100 % 1010,3 hPa 0,0 l/m 0 min 0 min 42 W/m 6,4 km/h (2 Bft) 97,87 %
30.06.2021 06:52 15,3 C 14,4 C 15,6 C 100 % 1010,3 hPa 0,0 l/m 0 min 0 min 44 W/m 6,4 km/h (2 Bft) 97,92 %
30.06.2021 06:54 15,3 C 15,0 C 15,6 C 100 % 1010,3 hPa 0,0 l/m 0 min 0 min 47 W/m 6,4 km/h (2 Bft) 97,87 %
30.06.2021 06:56 15,3 C 15,0 C 16,1 C 100 % 1010,2 hPa 0,0 l/m 0 min 0 min 52 W/m 12,9 km/h (3 Bft) 100,00 %
30.06.2021 06:58 15,3 C 15,0 C 15,6 C 100 % 1010,2 hPa 0,0 l/m 0 min 0 min 56 W/m 6,4 km/h (2 Bft) 97,83 %
30.06.2021 07:00 15,3 C 15,0 C 16,1 C 100 % 1010,3 hPa 0,0 l/m 0 min 0 min 60 W/m 6,4 km/h (2 Bft) 100,00 %
30.06.2021 07:02 15,3 C 15,0 C 16,1 C 100 % 1010,3 hPa 0,0 l/m 0 min 0 min 62 W/m 6,4 km/h (2 Bft) 100,00 %
30.06.2021 07:04 15,4 C 15,0 C 16,1 C 100 % 1010,2 hPa 0,0 l/m 0 min 0 min 62 W/m 6,4 km/h (2 Bft) 100,00 %
30.06.2021 07:06 15,4 C 15,0 C 16,1 C 100 % 1010,3 hPa 0,0 l/m 0 min 0 min 60 W/m 6,4 km/h (2 Bft) 97,87 %
30.06.2021 07:08 15,4 C 15,0 C 16,1 C 100 % 1010,3 hPa 0,0 l/m 0 min 0 min 55 W/m 3,2 km/h (1 Bft) 100,00 %
30.06.2021 07:10 15,4 C 15,0 C 16,1 C 100 % 1010,3 hPa 0,0 l/m 0 min 0 min 47 W/m 6,4 km/h (2 Bft) 100,00 %
30.06.2021 07:12 15,4 C 15,0 C 16,1 C 100 % 1010,3 hPa 0,0 l/m 0 min 0 min 43 W/m 6,4 km/h (2 Bft) 100,00 %
30.06.2021 07:14 15,5 C 15,0 C 16,1 C 100 % 1010,3 hPa 0,0 l/m 0 min 0 min 37 W/m 9,7 km/h (2 Bft) 100,00 %
30.06.2021 07:16 15,5 C 15,0 C 16,1 C 100 % 1010,3 hPa 0,0 l/m 0 min 0 min 30 W/m 9,7 km/h (2 Bft) 97,87 %
30.06.2021 07:18 15,5 C 15,0 C 16,1 C 100 % 1010,3 hPa 0,0 l/m 0 min 0 min 26 W/m 9,7 km/h (2 Bft) 100,00 %
30.06.2021 07:20 15,4 C 15,0 C 16,1 C 100 % 1010,3 hPa 0,0 l/m 0 min 0 min 25 W/m 3,2 km/h (1 Bft) 100,00 %
30.06.2021 07:22 15,5 C 15,0 C 16,1 C 100 % 1010,3 hPa 0,0 l/m 0 min 0 min 22 W/m 3,2 km/h (1 Bft) 100,00 %
30.06.2021 07:24 15,5 C 15,0 C 16,1 C 100 % 1010,4 hPa 0,0 l/m 0 min 0 min 21 W/m 3,2 km/h (1 Bft) 100,00 %
30.06.2021 07:26 15,5 C 15,0 C 16,1 C 100 % 1010,3 hPa 0,0 l/m 0 min 0 min 21 W/m 3,2 km/h (1 Bft) 97,87 %
30.06.2021 07:28 15,5 C 15,0 C 16,1 C 100 % 1010,3 hPa 0,0 l/m 0 min 0 min 20 W/m 3,2 km/h (1 Bft) 100,00 %
30.06.2021 07:30 15,5 C 15,0 C 16,1 C 100 % 1010,4 hPa 0,0 l/m 0 min 0 min 16 W/m 3,2 km/h (1 Bft) 97,87 %
30.06.2021 07:32 15,5 C 15,0 C 16,1 C 100 % 1010,3 hPa 0,0 l/m 0 min 0 min 15 W/m 3,2 km/h (1 Bft) 100,00 %
30.06.2021 07:34 15,6 C 15,0 C 16,1 C 100 % 1010,4 hPa 0,0 l/m 0 min 0 min 23 W/m 12,9 km/h (3 Bft) 100,00 %
30.06.2021 07:36 15,6 C 15,0 C 16,1 C 100 % 1010,5 hPa 0,0 l/m 0 min 0 min 38 W/m 6,4 km/h (2 Bft) 97,87 %
30.06.2021 07:38 15,6 C 15,0 C 16,1 C 100 % 1010,4 hPa 0,0 l/m 0 min 0 min 48 W/m 6,4 km/h (2 Bft) 100,00 %
30.06.2021 07:40 15,5 C 15,0 C 16,1 C 100 % 1010,4 hPa 0,0 l/m 0 min 0 min 53 W/m 6,4 km/h (2 Bft) 97,87 %
30.06.2021 07:42 15,5 C 15,0 C 16,1 C 100 % 1010,4 hPa 0,0 l/m 0 min 0 min 53 W/m 3,2 km/h (1 Bft) 97,87 %
30.06.2021 07:44 15,5 C 15,0 C 16,1 C 100 % 1010,5 hPa 0,0 l/m 0 min 0 min 47 W/m 6,4 km/h (2 Bft) 97,83 %
30.06.2021 07:46 15,5 C 15,0 C 16,1 C 100 % 1010,4 hPa 0,0 l/m 0 min 0 min 48 W/m 9,7 km/h (2 Bft) 97,87 %
30.06.2021 07:48 15,5 C 15,0 C 16,1 C 100 % 1010,5 hPa 0,0 l/m 0 min 0 min 53 W/m 6,4 km/h (2 Bft) 97,87 %
30.06.2021 07:50 15,5 C 15,0 C 16,1 C 100 % 1010,6 hPa 0,0 l/m 0 min 0 min 62 W/m 6,4 km/h (2 Bft) 97,87 %
30.06.2021 07:52 15,5 C 15,0 C 16,1 C 100 % 1010,6 hPa 0,0 l/m 0 min 0 min 50 W/m 9,7 km/h (2 Bft) 93,62 %
30.06.2021 07:54 15,5 C 15,0 C 16,1 C 100 % 1010,6 hPa 0,0 l/m 0 min 0 min 39 W/m 6,4 km/h (2 Bft) 97,73 %
30.06.2021 07:56 15,5 C 15,0 C 16,1 C 100 % 1010,6 hPa 0,0 l/m 0 min 0 min 37 W/m 3,2 km/h (1 Bft) 97,83 %
30.06.2021 07:58 15,5 C 15,0 C 16,1 C 100 % 1010,6 hPa 0,0 l/m 0 min 0 min 41 W/m 6,4 km/h (2 Bft) 97,87 %
30.06.2021 08:00 15,5 C 15,0 C 16,1 C 100 % 1010,6 hPa 0,0 l/m 0 min 0 min 47 W/m 3,2 km/h (1 Bft) 97,87 %
30.06.2021 08:02 15,5 C 15,0 C 16,1 C 100 % 1010,6 hPa 0,0 l/m 0 min 0 min 49 W/m 6,4 km/h (2 Bft) 97,87 %
30.06.2021 08:04 15,5 C 15,0 C 16,1 C 100 % 1010,6 hPa 0,0 l/m 0 min 0 min 48 W/m 3,2 km/h (1 Bft) 95,74 %
30.06.2021 08:06 15,5 C 15,0 C 16,1 C 100 % 1010,6 hPa 0,0 l/m 0 min 0 min 46 W/m 6,4 km/h (2 Bft) 98,28 %
30.06.2021 08:08 15,5 C 15,0 C 16,1 C 100 % 1010,6 hPa 0,0 l/m 0 min 0 min 45 W/m 6,4 km/h (2 Bft) 97,14 %
30.06.2021 08:10 15,5 C 15,0 C 16,1 C 100 % 1010,6 hPa 0,0 l/m 0 min 0 min 44 W/m 9,7 km/h (2 Bft) 97,87 %
30.06.2021 08:12 15,5 C 15,0 C 16,1 C 100 % 1010,6 hPa 0,0 l/m 0 min 0 min 46 W/m 3,2 km/h (1 Bft) 97,87 %
30.06.2021 08:14 15,5 C 15,0 C 16,1 C 100 % 1010,6 hPa 0,0 l/m 0 min 0 min 52 W/m 6,4 km/h (2 Bft) 97,87 %
30.06.2021 08:16 15,5 C 15,0 C 16,1 C 100 % 1010,6 hPa 0,0 l/m 0 min 0 min 58 W/m 6,4 km/h (2 Bft) 97,87 %
30.06.2021 08:18 15,5 C 15,0 C 16,1 C 100 % 1010,6 hPa 0,0 l/m 0 min 0 min 61 W/m 6,4 km/h (2 Bft) 97,87 %
30.06.2021 08:20 15,5 C 15,0 C 16,1 C 100 % 1010,6 hPa 0,0 l/m 0 min 0 min 64 W/m 6,4 km/h (2 Bft) 93,48 %
30.06.2021 08:22 15,4 C 15,0 C 15,6 C 100 % 1010,6 hPa 0,0 l/m 0 min 0 min 67 W/m 3,2 km/h (1 Bft) 98,00 %
30.06.2021 08:24 15,4 C 15,0 C 16,1 C 100 % 1010,6 hPa 0,0 l/m 0 min 0 min 66 W/m 6,4 km/h (2 Bft) 95,74 %
30.06.2021 08:26 15,4 C 15,0 C 16,1 C 100 % 1010,6 hPa 0,0 l/m 0 min 0 min 62 W/m 9,7 km/h (2 Bft) 97,87 %
30.06.2021 08:28 15,4 C 15,0 C 16,1 C 100 % 1010,6 hPa 0,0 l/m 0 min 0 min 62 W/m 6,4 km/h (2 Bft) 100,00 %
30.06.2021 08:30 15,4 C 15,0 C 16,1 C 100 % 1010,6 hPa 0,0 l/m 0 min 0 min 57 W/m 6,4 km/h (2 Bft) 100,00 %
30.06.2021 08:32 15,4 C 15,0 C 16,1 C 100 % 1010,6 hPa 0,0 l/m 0 min 0 min 59 W/m 12,9 km/h (3 Bft) 97,83 %
30.06.2021 08:34 15,4 C 15,0 C 16,1 C 100 % 1010,6 hPa 0,0 l/m 0 min 0 min 70 W/m 6,4 km/h (2 Bft) 100,00 %
30.06.2021 08:36 15,4 C 14,4 C 15,6 C 100 % 1010,7 hPa 0,0 l/m 0 min 0 min 68 W/m 3,2 km/h (1 Bft) 100,00 %
30.06.2021 08:38 15,4 C 14,4 C 15,6 C 100 % 1010,6 hPa 0,0 l/m 0 min 0 min 63 W/m 6,4 km/h (2 Bft) 100,00 %
30.06.2021 08:40 15,4 C 15,0 C 16,1 C 100 % 1010,6 hPa 0,0 l/m 0 min 0 min 67 W/m 3,2 km/h (1 Bft) 100,00 %
30.06.2021 08:42 15,4 C 15,0 C 16,1 C 100 % 1010,7 hPa 0,0 l/m 0 min 0 min 67 W/m 6,4 km/h (2 Bft) 100,00 %
30.06.2021 08:44 15,4 C 15,0 C 16,1 C 100 % 1010,6 hPa 0,0 l/m 0 min 0 min 59 W/m 6,4 km/h (2 Bft) 100,00 %
30.06.2021 08:46 15,4 C 15,0 C 16,1 C 100 % 1010,7 hPa 0,0 l/m 0 min 0 min 57 W/m 6,4 km/h (2 Bft) 100,00 %
30.06.2021 08:48 15,4 C 15,0 C 16,1 C 100 % 1010,6 hPa 0,0 l/m 0 min 0 min 66 W/m 6,4 km/h (2 Bft) 97,87 %
30.06.2021 08:50 15,4 C 15,0 C 16,1 C 100 % 1010,7 hPa 0,0 l/m 0 min 0 min 82 W/m 6,4 km/h (2 Bft) 100,00 %
30.06.2021 08:52 15,4 C 15,0 C 16,1 C 100 % 1010,7 hPa 0,0 l/m 0 min 0 min 98 W/m 6,4 km/h (2 Bft) 100,00 %
30.06.2021 08:54 15,4 C 15,0 C 16,1 C 100 % 1010,7 hPa 0,0 l/m 0 min 0 min 103 W/m 3,2 km/h (1 Bft) 97,87 %
30.06.2021 08:56 15,4 C 15,0 C 16,1 C 100 % 1010,7 hPa 0,0 l/m 0 min 0 min 102 W/m 6,4 km/h (2 Bft) 100,00 %
30.06.2021 08:58 15,4 C 15,0 C 16,1 C 100 % 1010,7 hPa 0,0 l/m 0 min 0 min 92 W/m 3,2 km/h (1 Bft) 95,74 %
30.06.2021 09:00 15,4 C 15,0 C 16,1 C 100 % 1010,7 hPa 0,0 l/m 0 min 0 min 88 W/m 12,9 km/h (3 Bft) 97,87 %
30.06.2021 09:02 15,4 C 15,0 C 16,1 C 100 % 1010,7 hPa 0,0 l/m 0 min 0 min 89 W/m 6,4 km/h (2 Bft) 97,87 %
30.06.2021 09:04 15,4 C 15,0 C 16,1 C 100 % 1010,7 hPa 0,0 l/m 0 min 0 min 88 W/m 6,4 km/h (2 Bft) 97,87 %
30.06.2021 09:06 15,4 C 15,0 C 16,1 C 100 % 1010,7 hPa 0,0 l/m 0 min 0 min 93 W/m 3,2 km/h (1 Bft) 97,87 %
30.06.2021 09:08 15,4 C 15,0 C 16,1 C 100 % 1010,8 hPa 0,0 l/m 0 min 0 min 83 W/m 0,0 km/h (0 Bft) 97,83 %
30.06.2021 09:10 15,4 C 15,0 C 16,1 C 100 % 1010,8 hPa 0,0 l/m 0 min 0 min 79 W/m 6,4 km/h (2 Bft) 97,87 %
30.06.2021 09:12 15,4 C 15,0 C 16,1 C 100 % 1010,8 hPa 0,0 l/m 0 min 0 min 77 W/m 3,2 km/h (1 Bft) 95,74 %
30.06.2021 09:14 15,4 C 15,0 C 16,1 C 100 % 1010,9 hPa 0,0 l/m 0 min 0 min 86 W/m 9,7 km/h (2 Bft) 97,87 %
30.06.2021 09:16 15,4 C 15,0 C 16,1 C 100 % 1010,9 hPa 0,0 l/m 0 min 0 min 99 W/m 3,2 km/h (1 Bft) 97,87 %
30.06.2021 09:18 15,4 C 15,0 C 16,1 C 100 % 1010,9 hPa 0,0 l/m 0 min 0 min 85 W/m 6,4 km/h (2 Bft) 97,83 %
30.06.2021 09:20 15,4 C 15,0 C 16,1 C 100 % 1010,9 hPa 0,0 l/m 0 min 0 min 72 W/m 6,4 km/h (2 Bft) 97,87 %
30.06.2021 09:22 15,4 C 15,0 C 16,1 C 100 % 1010,9 hPa 0,0 l/m 0 min 0 min 72 W/m 3,2 km/h (1 Bft) 95,74 %
30.06.2021 09:24 15,4 C 15,0 C 16,1 C 100 % 1010,9 hPa 0,0 l/m 0 min 0 min 87 W/m 3,2 km/h (1 Bft) 97,87 %
30.06.2021 09:26 15,4 C 15,0 C 16,1 C 100 % 1011,0 hPa 0,0 l/m 0 min 0 min 83 W/m 3,2 km/h (1 Bft) 95,74 %
30.06.2021 09:28 15,4 C 15,0 C 16,1 C 100 % 1011,0 hPa 0,0 l/m 0 min 0 min 69 W/m 3,2 km/h (1 Bft) 97,87 %
30.06.2021 09:30 15,5 C 15,0 C 16,1 C 100 % 1011,0 hPa 0,0 l/m 0 min 0 min 72 W/m 3,2 km/h (1 Bft) 95,65 %
30.06.2021 09:32 15,5 C 15,0 C 16,1 C 100 % 1011,0 hPa 0,0 l/m 0 min 0 min 82 W/m 6,4 km/h (2 Bft) 97,87 %
30.06.2021 09:34 15,4 C 15,0 C 16,1 C 100 % 1011,0 hPa 0,0 l/m 0 min 0 min 86 W/m 6,4 km/h (2 Bft) 97,87 %
30.06.2021 09:36 15,4 C 15,0 C 16,1 C 100 % 1011,0 hPa 0,0 l/m 0 min 2 min 97 W/m 3,2 km/h (1 Bft) 97,87 %
30.06.2021 09:38 15,5 C 15,0 C 16,1 C 100 % 1011,0 hPa 0,0 l/m 0 min 0 min 117 W/m 3,2 km/h (1 Bft) 97,87 %
30.06.2021 09:40 15,5 C 15,6 C 16,1 C 100 % 1011,0 hPa 0,0 l/m 0 min 2 min 128 W/m 3,2 km/h (1 Bft) 97,87 %
30.06.2021 09:42 15,5 C 15,6 C 16,1 C 100 % 1011,0 hPa 0,0 l/m 0 min 0 min 129 W/m 6,4 km/h (2 Bft) 97,83 %
30.06.2021 09:44 15,5 C 15,6 C 16,1 C 100 % 1011,1 hPa 0,0 l/m 0 min 0 min 125 W/m 6,4 km/h (2 Bft) 97,87 %
30.06.2021 09:46 15,5 C 15,6 C 16,7 C 100 % 1011,1 hPa 0,0 l/m 0 min 2 min 129 W/m 9,7 km/h (2 Bft) 97,87 %
30.06.2021 09:48 15,5 C 15,0 C 16,1 C 100 % 1011,1 hPa 0,0 l/m 0 min 2 min 132 W/m 6,4 km/h (2 Bft) 95,74 %
30.06.2021 09:50 15,6 C 15,6 C 16,7 C 100 % 1011,1 hPa 0,0 l/m 0 min 2 min 142 W/m 3,2 km/h (1 Bft) 100,00 %
30.06.2021 09:52 15,6 C 15,0 C 16,1 C 100 % 1011,1 hPa 0,0 l/m 0 min 0 min 136 W/m 6,4 km/h (2 Bft) 97,87 %
30.06.2021 09:54 15,5 C 15,0 C 16,1 C 100 % 1011,2 hPa 0,0 l/m 0 min 0 min 140 W/m 3,2 km/h (1 Bft) 100,00 %
30.06.2021 09:56 15,6 C 15,6 C 16,1 C 100 % 1011,2 hPa 0,0 l/m 0 min 0 min 154 W/m 6,4 km/h (2 Bft) 97,87 %
30.06.2021 09:58 15,6 C 15,6 C 16,7 C 100 % 1011,2 hPa 0,0 l/m 0 min 0 min 155 W/m 6,4 km/h (2 Bft) 97,87 %
30.06.2021 10:00 15,6 C 15,6 C 16,1 C 100 % 1011,2 hPa 0,2 l/m 0 min 0 min 127 W/m 6,4 km/h (2 Bft) 100,00 %
30.06.2021 10:02 15,6 C 15,6 C 16,7 C 100 % 1011,2 hPa 0,0 l/m 0 min 0 min 144 W/m 6,4 km/h (2 Bft) 100,00 %
30.06.2021 10:04 15,6 C 15,6 C 16,1 C 100 % 1011,2 hPa 0,0 l/m 0 min 0 min 173 W/m 6,4 km/h (2 Bft) 100,00 %
30.06.2021 10:06 15,6 C 15,6 C 16,7 C 100 % 1011,2 hPa 0,0 l/m 0 min 0 min 194 W/m 3,2 km/h (1 Bft) 100,00 %
30.06.2021 10:08 15,6 C 15,6 C 16,7 C 100 % 1011,2 hPa 0,0 l/m 0 min 0 min 181 W/m 6,4 km/h (2 Bft) 100,00 %
30.06.2021 10:10 15,7 C 15,6 C 16,7 C 100 % 1011,2 hPa 0,0 l/m 0 min 0 min 169 W/m 3,2 km/h (1 Bft) 100,00 %
30.06.2021 10:12 15,8 C 15,6 C 16,7 C 100 % 1011,2 hPa 0,0 l/m 0 min 0 min 170 W/m 3,2 km/h (1 Bft) 100,00 %
30.06.2021 10:14 15,8 C 16,1 C 16,7 C 100 % 1011,2 hPa 0,0 l/m 0 min 0 min 226 W/m 6,4 km/h (2 Bft) 97,87 %
30.06.2021 10:16 15,8 C 16,1 C 17,3 C 100 % 1011,2 hPa 0,0 l/m 0 min 0 min 274 W/m 3,2 km/h (1 Bft) 97,87 %
30.06.2021 10:18 15,8 C 16,1 C 17,3 C 100 % 1011,2 hPa 0,0 l/m 0 min 0 min 292 W/m 6,4 km/h (2 Bft) 100,00 %
30.06.2021 10:20 15,9 C 16,1 C 17,3 C 100 % 1011,2 hPa 0,0 l/m 0 min 0 min 225 W/m 3,2 km/h (1 Bft) 100,00 %
30.06.2021 10:22 15,9 C 16,1 C 16,7 C 100 % 1011,1 hPa 0,0 l/m 0 min 0 min 234 W/m 6,4 km/h (2 Bft) 97,87 %
30.06.2021 10:24 15,8 C 16,1 C 16,7 C 100 % 1011,1 hPa 0,0 l/m 0 min 0 min 289 W/m 12,9 km/h (3 Bft) 100,00 %
30.06.2021 10:26 15,8 C 16,1 C 16,7 C 100 % 1011,1 hPa 0,0 l/m 0 min 0 min 316 W/m 6,4 km/h (2 Bft) 100,00 %
30.06.2021 10:28 15,9 C 16,7 C 17,3 C 100 % 1011,1 hPa 0,0 l/m 0 min 0 min 323 W/m 3,2 km/h (1 Bft) 100,00 %
30.06.2021 10:30 16,0 C 17,2 C 17,3 C 100 % 1011,0 hPa 0,0 l/m 0 min 0 min 314 W/m 6,4 km/h (2 Bft) 100,00 %
30.06.2021 10:32 16,1 C 17,2 C 17,8 C 100 % 1011,0 hPa 0,0 l/m 0 min 0 min 319 W/m 6,4 km/h (2 Bft) 98,15 %
30.06.2021 10:34 16,1 C 17,2 C 17,8 C 100 % 1011,0 hPa 0,0 l/m 0 min 0 min 318 W/m 6,4 km/h (2 Bft) 100,00 %
30.06.2021 10:36 16,2 C 17,2 C 17,3 C 100 % 1011,1 hPa 0,0 l/m 0 min 0 min 328 W/m 6,4 km/h (2 Bft) 97,87 %
30.06.2021 10:38 16,3 C 17,8 C 17,8 C 100 % 1011,1 hPa 0,0 l/m 2 min 0 min 371 W/m 9,7 km/h (2 Bft) 97,83 %
30.06.2021 10:40 16,4 C 17,8 C 17,8 C 100 % 1011,0 hPa 0,0 l/m 2 min 0 min 411 W/m 6,4 km/h (2 Bft) 97,87 %
30.06.2021 10:42 16,4 C 18,3 C 18,4 C 100 % 1011,1 hPa 0,0 l/m 2 min 0 min 411 W/m 12,9 km/h (3 Bft) 97,87 %
30.06.2021 10:44 16,5 C 18,3 C 18,4 C 100 % 1011,1 hPa 0,0 l/m 2 min 0 min 435 W/m 9,7 km/h (2 Bft) 97,87 %
30.06.2021 10:46 16,5 C 17,8 C 17,8 C 100 % 1011,1 hPa 0,0 l/m 2 min 0 min 386 W/m 12,9 km/h (3 Bft) 97,87 %
30.06.2021 10:48 16,5 C 17,8 C 17,8 C 100 % 1011,1 hPa 0,0 l/m 2 min 0 min 389 W/m 9,7 km/h (2 Bft) 95,74 %
30.06.2021 10:50 16,6 C 18,3 C 17,8 C 100 % 1011,1 hPa 0,0 l/m 0 min 0 min 366 W/m 6,4 km/h (2 Bft) 97,83 %
30.06.2021 10:52 16,6 C 18,3 C 18,4 C 100 % 1011,0 hPa 0,0 l/m 2 min 0 min 394 W/m 3,2 km/h (1 Bft) 97,50 %
30.06.2021 10:54 16,8 C 18,3 C 18,4 C 100 % 1011,1 hPa 0,0 l/m 0 min 0 min 259 W/m 6,4 km/h (2 Bft) 97,87 %
30.06.2021 10:56 16,8 C 17,8 C 17,8 C 100 % 1011,1 hPa 0,0 l/m 0 min 0 min 174 W/m 6,4 km/h (2 Bft) 97,87 %
30.06.2021 10:58 16,8 C 17,2 C 17,8 C 100 % 1011,1 hPa 0,0 l/m 0 min 0 min 207 W/m 9,7 km/h (2 Bft) 95,74 %
30.06.2021 11:00 16,7 C 17,2 C 17,8 C 99 % 1011,1 hPa 0,0 l/m 0 min 0 min 266 W/m 6,4 km/h (2 Bft) 97,87 %
30.06.2021 11:02 16,7 C 17,2 C 17,8 C 99 % 1011,1 hPa 0,0 l/m 0 min 0 min 337 W/m 6,4 km/h (2 Bft) 95,74 %
30.06.2021 11:04 16,7 C 17,2 C 17,8 C 99 % 1011,1 hPa 0,0 l/m 2 min 0 min 402 W/m 3,2 km/h (1 Bft) 97,83 %
30.06.2021 11:06 16,8 C 17,8 C 17,8 C 99 % 1011,1 hPa 0,0 l/m 2 min 0 min 450 W/m 6,4 km/h (2 Bft) 97,87 %
30.06.2021 11:08 16,9 C 18,3 C 18,4 C 99 % 1011,1 hPa 0,0 l/m 2 min 0 min 470 W/m 6,4 km/h (2 Bft) 97,87 %
30.06.2021 11:10 16,9 C 18,3 C 18,4 C 99 % 1011,1 hPa 0,0 l/m 0 min 0 min 375 W/m 6,4 km/h (2 Bft) 95,74 %
30.06.2021 11:12 17,0 C 17,8 C 17,8 C 99 % 1011,2 hPa 0,0 l/m 0 min 0 min 224 W/m 9,7 km/h (2 Bft) 97,87 %
30.06.2021 11:14 17,0 C 17,2 C 17,8 C 98 % 1011,2 hPa 0,0 l/m 0 min 0 min 117 W/m 12,9 km/h (3 Bft) 97,87 %
30.06.2021 11:16 16,9 C 16,7 C 17,3 C 98 % 1011,2 hPa 0,0 l/m 0 min 0 min 112 W/m 12,9 km/h (3 Bft) 97,83 %
30.06.2021 11:18 16,6 C 16,7 C 17,3 C 98 % 1011,2 hPa 0,0 l/m 0 min 0 min 128 W/m 12,9 km/h (3 Bft) 100,00 %
30.06.2021 11:20 16,5 C 16,1 C 16,7 C 97 % 1011,1 hPa 0,0 l/m 0 min 0 min 145 W/m 9,7 km/h (2 Bft) 97,87 %
30.06.2021 11:22 16,4 C 16,1 C 16,7 C 97 % 1011,2 hPa 0,0 l/m 0 min 0 min 167 W/m 12,9 km/h (3 Bft) 97,87 %
30.06.2021 11:24 16,4 C 16,1 C 17,3 C 97 % 1011,2 hPa 0,0 l/m 0 min 0 min 191 W/m 9,7 km/h (2 Bft) 97,87 %
30.06.2021 11:26 16,4 C 16,7 C 17,3 C 97 % 1011,3 hPa 0,0 l/m 0 min 0 min 209 W/m 9,7 km/h (2 Bft) 97,87 %
30.06.2021 11:28 16,4 C 16,7 C 16,7 C 97 % 1011,2 hPa 0,0 l/m 0 min 0 min 236 W/m 12,9 km/h (3 Bft) 97,83 %
30.06.2021 11:30 16,4 C 16,7 C 17,3 C 97 % 1011,2 hPa 0,0 l/m 0 min 0 min 282 W/m 12,9 km/h (3 Bft) 95,74 %
30.06.2021 11:32 16,4 C 16,7 C 17,3 C 97 % 1011,2 hPa 0,0 l/m 0 min 0 min 338 W/m 12,9 km/h (3 Bft) 97,87 %
30.06.2021 11:34 16,5 C 17,2 C 17,3 C 97 % 1011,2 hPa 0,0 l/m 0 min 0 min 383 W/m 12,9 km/h (3 Bft) 100,00 %
30.06.2021 11:36 16,6 C 17,2 C 17,8 C 97 % 1011,2 hPa 0,0 l/m 2 min 0 min 427 W/m 9,7 km/h (2 Bft) 100,00 %
30.06.2021 11:38 16,7 C 17,8 C 17,8 C 97 % 1011,2 hPa 0,0 l/m 0 min 0 min 372 W/m 6,4 km/h (2 Bft) 100,00 %
30.06.2021 11:40 16,8 C 17,8 C 17,8 C 97 % 1011,3 hPa 0,0 l/m 0 min 0 min 400 W/m 16,1 km/h (3 Bft) 97,83 %
30.06.2021 11:42 16,8 C 17,8 C 17,8 C 97 % 1011,5 hPa 0,0 l/m 0 min 0 min 404 W/m 16,1 km/h (3 Bft) 100,00 %
30.06.2021 11:44 16,9 C 18,3 C 18,9 C 96 % 1011,3 hPa 0,0 l/m 0 min 0 min 402 W/m 12,9 km/h (3 Bft) 97,87 %
30.06.2021 11:46 16,9 C 18,9 C 18,9 C 96 % 1011,4 hPa 0,0 l/m 2 min 0 min 485 W/m 19,3 km/h (3 Bft) 95,74 %
30.06.2021 11:48 17,0 C 18,3 C 18,4 C 96 % 1011,4 hPa 0,0 l/m 0 min 0 min 413 W/m 12,9 km/h (3 Bft) 93,62 %
30.06.2021 11:50 17,0 C 18,9 C 18,4 C 96 % 1011,4 hPa 0,0 l/m 2 min 0 min 440 W/m 12,9 km/h (3 Bft) 95,74 %
30.06.2021 11:52 17,1 C 18,9 C 18,4 C 96 % 1011,5 hPa 0,0 l/m 2 min 0 min 476 W/m 12,9 km/h (3 Bft) 97,83 %
30.06.2021 11:54 17,2 C 18,9 C 18,4 C 96 % 1011,5 hPa 0,0 l/m 2 min 0 min 424 W/m 6,4 km/h (2 Bft) 97,87 %
30.06.2021 11:56 17,3 C 18,3 C 17,8 C 95 % 1011,5 hPa 0,0 l/m 0 min 0 min 272 W/m 9,7 km/h (2 Bft) 97,87 %
30.06.2021 11:58 17,3 C 17,8 C 17,8 C 95 % 1011,5 hPa 0,0 l/m 0 min 0 min 221 W/m 9,7 km/h (2 Bft) 100,00 %
30.06.2021 12:00 17,3 C 17,8 C 17,8 C 94 % 1011,6 hPa 0,0 l/m 0 min 0 min 152 W/m 19,3 km/h (3 Bft) 97,87 %
30.06.2021 12:02 17,2 C 17,2 C 17,3 C 94 % 1011,5 hPa 0,0 l/m 0 min 0 min 128 W/m 12,9 km/h (3 Bft) 95,74 %
30.06.2021 12:04 17,1 C 17,2 C 17,3 C 93 % 1011,5 hPa 0,0 l/m 0 min 0 min 195 W/m 9,7 km/h (2 Bft) 100,00 %
30.06.2021 12:08 17,0 C 17,2 C 17,3 C 93 % 1011,5 hPa 0,0 l/m 0 min 0 min 256 W/m 12,9 km/h (3 Bft) 96,77 %
30.06.2021 12:10 17,0 C 17,2 C 17,3 C 93 % 1011,5 hPa 0,0 l/m 0 min 0 min 306 W/m 12,9 km/h (3 Bft) 97,87 %
30.06.2021 12:12 17,1 C 17,8 C 17,8 C 93 % 1011,5 hPa 0,0 l/m 0 min 0 min 329 W/m 9,7 km/h (2 Bft) 95,74 %
30.06.2021 12:14 17,1 C 17,8 C 17,8 C 93 % 1011,5 hPa 0,0 l/m 0 min 0 min 291 W/m 6,4 km/h (2 Bft) 95,74 %
30.06.2021 12:16 17,1 C 17,2 C 17,3 C 93 % 1011,5 hPa 0,0 l/m 0 min 0 min 212 W/m 6,4 km/h (2 Bft) 95,74 %
30.06.2021 12:18 17,2 C 17,2 C 17,3 C 93 % 1011,6 hPa 0,0 l/m 0 min 0 min 151 W/m 16,1 km/h (3 Bft) 95,65 %
30.06.2021 12:20 17,1 C 17,2 C 17,3 C 92 % 1011,6 hPa 0,0 l/m 0 min 0 min 129 W/m 12,9 km/h (3 Bft) 95,74 %
30.06.2021 12:22 17,1 C 16,7 C 17,3 C 92 % 1011,6 hPa 0,0 l/m 0 min 0 min 119 W/m 12,9 km/h (3 Bft) 95,74 %
30.06.2021 12:24 17,0 C 16,7 C 17,3 C 92 % 1011,6 hPa 0,0 l/m 0 min 0 min 123 W/m 9,7 km/h (2 Bft) 95,74 %
30.06.2021 12:26 17,0 C 16,7 C 17,3 C 92 % 1011,6 hPa 0,0 l/m 0 min 0 min 140 W/m 6,4 km/h (2 Bft) 94,55 %
30.06.2021 12:28 17,0 C 16,7 C 17,3 C 92 % 1011,6 hPa 0,0 l/m 0 min 0 min 150 W/m 12,9 km/h (3 Bft) 98,00 %
30.06.2021 12:30 16,9 C 16,7 C 17,3 C 92 % 1011,7 hPa 0,0 l/m 0 min 0 min 157 W/m 12,9 km/h (3 Bft) 95,74 %
30.06.2021 12:32 16,9 C 16,7 C 17,3 C 92 % 1011,6 hPa 0,0 l/m 0 min 0 min 170 W/m 6,4 km/h (2 Bft) 97,87 %
30.06.2021 12:34 17,0 C 16,7 C 17,3 C 92 % 1011,7 hPa 0,0 l/m 0 min 0 min 191 W/m 6,4 km/h (2 Bft) 97,37 %
30.06.2021 12:36 17,0 C 17,2 C 17,3 C 93 % 1011,7 hPa 0,0 l/m 0 min 0 min 209 W/m 6,4 km/h (2 Bft) 97,87 %
30.06.2021 12:38 17,0 C 17,2 C 17,3 C 93 % 1011,6 hPa 0,0 l/m 0 min 0 min 257 W/m 3,2 km/h (1 Bft) 97,87 %
30.06.2021 12:40 17,1 C 17,2 C 17,3 C 93 % 1011,7 hPa 0,0 l/m 0 min 0 min 310 W/m 3,2 km/h (1 Bft) 95,65 %
30.06.2021 12:42 17,2 C 17,8 C 17,8 C 93 % 1011,7 hPa 0,0 l/m 0 min 0 min 376 W/m 9,7 km/h (2 Bft) 97,87 %
30.06.2021 12:44 17,2 C 17,8 C 17,8 C 93 % 1011,7 hPa 0,0 l/m 0 min 0 min 349 W/m 12,9 km/h (3 Bft) 97,87 %
30.06.2021 12:46 17,2 C 17,8 C 17,8 C 93 % 1011,6 hPa 0,0 l/m 0 min 0 min 309 W/m 12,9 km/h (3 Bft) 97,87 %
30.06.2021 12:48 17,2 C 17,8 C 17,8 C 92 % 1011,7 hPa 0,0 l/m 0 min 0 min 292 W/m 6,4 km/h (2 Bft) 97,87 %
30.06.2021 12:50 17,2 C 17,8 C 17,3 C 92 % 1011,6 hPa 0,0 l/m 0 min 0 min 241 W/m 9,7 km/h (2 Bft) 95,74 %
30.06.2021 12:52 17,2 C 17,2 C 17,3 C 92 % 1011,7 hPa 0,0 l/m 0 min 0 min 183 W/m 6,4 km/h (2 Bft) 96,23 %
30.06.2021 12:54 17,2 C 17,2 C 17,3 C 92 % 1011,7 hPa 0,0 l/m 0 min 0 min 143 W/m 9,7 km/h (2 Bft) 97,87 %
30.06.2021 12:56 17,3 C 17,2 C 17,3 C 92 % 1011,7 hPa 0,0 l/m 0 min 0 min 120 W/m 9,7 km/h (2 Bft) 95,74 %
30.06.2021 12:58 17,3 C 17,2 C 17,3 C 91 % 1011,7 hPa 0,0 l/m 0 min 0 min 98 W/m 6,4 km/h (2 Bft) 95,74 %
30.06.2021 13:00 17,3 C 17,2 C 17,3 C 92 % 1011,7 hPa 0,0 l/m 0 min 0 min 94 W/m 6,4 km/h (2 Bft) 97,96 %
30.06.2021 13:02 17,2 C 16,7 C 17,3 C 92 % 1011,8 hPa 0,0 l/m 0 min 0 min 96 W/m 6,4 km/h (2 Bft) 97,87 %
30.06.2021 13:04 17,2 C 16,7 C 17,3 C 92 % 1011,8 hPa 0,0 l/m 0 min 0 min 120 W/m 6,4 km/h (2 Bft) 97,87 %
30.06.2021 13:06 17,1 C 16,7 C 17,3 C 92 % 1011,9 hPa 0,0 l/m 0 min 0 min 149 W/m 6,4 km/h (2 Bft) 97,30 %
30.06.2021 13:08 17,1 C 16,7 C 17,3 C 92 % 1011,8 hPa 0,0 l/m 0 min 0 min 170 W/m 6,4 km/h (2 Bft) 95,74 %
30.06.2021 13:10 17,1 C 16,7 C 17,3 C 92 % 1011,8 hPa 0,0 l/m 0 min 0 min 194 W/m 6,4 km/h (2 Bft) 97,87 %
30.06.2021 13:12 17,1 C 16,7 C 17,3 C 92 % 1011,8 hPa 0,0 l/m 0 min 0 min 222 W/m 3,2 km/h (1 Bft) 97,87 %
30.06.2021 13:14 17,1 C 16,7 C 17,3 C 92 % 1011,8 hPa 0,0 l/m 0 min 0 min 198 W/m 6,4 km/h (2 Bft) 97,87 %
30.06.2021 13:16 17,1 C 16,7 C 17,3 C 92 % 1011,8 hPa 0,0 l/m 0 min 0 min 123 W/m 3,2 km/h (1 Bft) 97,83 %
30.06.2021 13:18 17,1 C 16,7 C 17,3 C 92 % 1011,8 hPa 0,0 l/m 0 min 0 min 92 W/m 12,9 km/h (3 Bft) 97,87 %
30.06.2021 13:20 17,1 C 16,7 C 17,3 C 92 % 1011,8 hPa 0,0 l/m 0 min 0 min 78 W/m 9,7 km/h (2 Bft) 97,87 %
30.06.2021 13:22 17,0 C 16,7 C 17,3 C 92 % 1011,8 hPa 0,0 l/m 0 min 0 min 87 W/m 9,7 km/h (2 Bft) 97,87 %
30.06.2021 13:24 16,9 C 16,1 C 17,3 C 92 % 1011,9 hPa 0,0 l/m 0 min 2 min 107 W/m 22,5 km/h (4 Bft) 98,11 %
30.06.2021 13:26 16,9 C 16,1 C 16,7 C 93 % 1011,9 hPa 0,0 l/m 0 min 0 min 118 W/m 12,9 km/h (3 Bft) 94,00 %
30.06.2021 13:28 16,8 C 16,1 C 16,7 C 93 % 1011,8 hPa 0,0 l/m 0 min 2 min 115 W/m 6,4 km/h (2 Bft) 97,87 %
30.06.2021 13:30 16,8 C 16,1 C 16,7 C 93 % 1011,8 hPa 0,0 l/m 0 min 2 min 116 W/m 6,4 km/h (2 Bft) 97,87 %
30.06.2021 13:32 16,8 C 16,1 C 16,7 C 93 % 1011,9 hPa 0,0 l/m 0 min 0 min 129 W/m 6,4 km/h (2 Bft) 97,92 %
30.06.2021 13:34 16,8 C 16,1 C 16,7 C 94 % 1011,8 hPa 0,0 l/m 0 min 0 min 142 W/m 6,4 km/h (2 Bft) 97,83 %
30.06.2021 13:36 16,8 C 16,1 C 16,7 C 94 % 1011,8 hPa 0,0 l/m 0 min 0 min 168 W/m 3,2 km/h (1 Bft) 93,62 %
30.06.2021 13:38 16,8 C 16,1 C 16,7 C 95 % 1011,8 hPa 0,0 l/m 0 min 0 min 170 W/m 12,9 km/h (3 Bft) 97,87 %
30.06.2021 13:40 16,8 C 16,1 C 16,7 C 95 % 1011,7 hPa 0,0 l/m 0 min 2 min 190 W/m 12,9 km/h (3 Bft) 95,74 %
30.06.2021 13:42 16,8 C 16,1 C 16,7 C 95 % 1011,8 hPa 0,0 l/m 0 min 0 min 199 W/m 12,9 km/h (3 Bft) 97,87 %
30.06.2021 13:44 16,7 C 16,1 C 16,7 C 95 % 1011,8 hPa 0,0 l/m 0 min 0 min 202 W/m 6,4 km/h (2 Bft) 97,83 %
30.06.2021 13:46 16,6 C 16,1 C 16,7 C 95 % 1011,8 hPa 0,0 l/m 0 min 0 min 213 W/m 9,7 km/h (2 Bft) 95,74 %
30.06.2021 13:48 16,6 C 16,1 C 16,7 C 95 % 1011,8 hPa 0,0 l/m 0 min 0 min 211 W/m 6,4 km/h (2 Bft) 97,87 %
30.06.2021 13:50 16,6 C 16,1 C 16,7 C 95 % 1011,9 hPa 0,0 l/m 0 min 0 min 176 W/m 9,7 km/h (2 Bft) 97,87 %
30.06.2021 13:52 16,5 C 16,1 C 16,7 C 95 % 1011,9 hPa 0,0 l/m 0 min 0 min 137 W/m 12,9 km/h (3 Bft) 97,87 %
30.06.2021 13:54 16,5 C 16,1 C 16,7 C 95 % 1011,9 hPa 0,0 l/m 0 min 0 min 128 W/m 12,9 km/h (3 Bft) 95,74 %
30.06.2021 13:56 16,5 C 16,1 C 16,7 C 95 % 1011,9 hPa 0,0 l/m 0 min 0 min 124 W/m 9,7 km/h (2 Bft) 97,83 %
30.06.2021 13:58 16,5 C 16,1 C 16,7 C 95 % 1012,0 hPa 0,0 l/m 0 min 0 min 139 W/m 12,9 km/h (3 Bft) 95,74 %
30.06.2021 14:00 16,5 C 16,1 C 16,1 C 95 % 1012,0 hPa 0,0 l/m 0 min 0 min 143 W/m 6,4 km/h (2 Bft) 93,62 %
30.06.2021 14:02 16,4 C 16,1 C 16,1 C 95 % 1012,0 hPa 0,0 l/m 0 min 0 min 161 W/m 12,9 km/h (3 Bft) 95,74 %
30.06.2021 14:04 16,4 C 16,1 C 16,7 C 95 % 1012,0 hPa 0,0 l/m 0 min 0 min 165 W/m 6,4 km/h (2 Bft) 95,74 %
30.06.2021 14:06 16,4 C 16,1 C 16,7 C 95 % 1012,0 hPa 0,0 l/m 0 min 0 min 158 W/m 9,7 km/h (2 Bft) 95,74 %
30.06.2021 14:08 16,4 C 16,1 C 16,7 C 95 % 1012,1 hPa 0,0 l/m 0 min 0 min 165 W/m 9,7 km/h (2 Bft) 97,22 %
30.06.2021 14:10 16,4 C 16,1 C 16,7 C 96 % 1012,0 hPa 0,0 l/m 0 min 0 min 192 W/m 9,7 km/h (2 Bft) 95,74 %
30.06.2021 14:12 16,4 C 16,1 C 16,7 C 96 % 1012,1 hPa 0,0 l/m 0 min 0 min 199 W/m 6,4 km/h (2 Bft) 95,74 %
30.06.2021 14:14 16,4 C 16,7 C 16,7 C 96 % 1012,1 hPa 0,0 l/m 0 min 0 min 187 W/m 12,9 km/h (3 Bft) 95,74 %
30.06.2021 14:16 16,4 C 16,7 C 16,7 C 96 % 1012,1 hPa 0,0 l/m 0 min 0 min 162 W/m 12,9 km/h (3 Bft) 95,65 %
30.06.2021 14:18 16,4 C 16,7 C 16,7 C 96 % 1012,1 hPa 0,0 l/m 0 min 0 min 130 W/m 6,4 km/h (2 Bft) 95,74 %
30.06.2021 14:20 16,4 C 16,7 C 16,7 C 96 % 1012,1 hPa 0,0 l/m 0 min 0 min 116 W/m 6,4 km/h (2 Bft) 95,74 %
30.06.2021 14:22 16,5 C 16,7 C 16,7 C 96 % 1012,1 hPa 0,0 l/m 0 min 0 min 122 W/m 6,4 km/h (2 Bft) 97,87 %
30.06.2021 14:24 16,5 C 16,7 C 16,7 C 96 % 1012,1 hPa 0,0 l/m 0 min 0 min 141 W/m 6,4 km/h (2 Bft) 95,65 %
30.06.2021 14:26 16,5 C 16,7 C 16,7 C 96 % 1012,1 hPa 0,0 l/m 0 min 0 min 155 W/m 3,2 km/h (1 Bft) 91,49 %
30.06.2021 14:28 16,5 C 16,7 C 16,7 C 96 % 1012,1 hPa 0,0 l/m 0 min 0 min 165 W/m 12,9 km/h (3 Bft) 95,74 %
30.06.2021 14:30 16,5 C 16,7 C 16,7 C 96 % 1012,1 hPa 0,0 l/m 0 min 0 min 122 W/m 9,7 km/h (2 Bft) 94,83 %
30.06.2021 14:32 16,5 C 16,1 C 16,7 C 96 % 1012,1 hPa 0,0 l/m 0 min 0 min 77 W/m 12,9 km/h (3 Bft) 91,67 %
30.06.2021 14:34 16,5 C 16,1 C 16,7 C 96 % 1012,1 hPa 0,0 l/m 0 min 0 min 56 W/m 12,9 km/h (3 Bft) 95,74 %
30.06.2021 14:36 16,4 C 16,1 C 16,7 C 96 % 1012,2 hPa 0,0 l/m 0 min 2 min 58 W/m 12,9 km/h (3 Bft) 94,83 %
30.06.2021 14:38 16,4 C 16,1 C 16,7 C 95 % 1012,2 hPa 0,0 l/m 0 min 2 min 70 W/m 12,9 km/h (3 Bft) 94,29 %
30.06.2021 14:40 16,3 C 15,6 C 16,7 C 95 % 1012,2 hPa 0,0 l/m 0 min 2 min 87 W/m 19,3 km/h (3 Bft) 95,74 %
30.06.2021 14:42 16,3 C 15,6 C 16,7 C 95 % 1012,2 hPa 0,2 l/m 0 min 2 min 99 W/m 6,4 km/h (2 Bft) 95,74 %
30.06.2021 14:44 16,3 C 15,6 C 16,7 C 96 % 1012,2 hPa 0,0 l/m 0 min 2 min 122 W/m 6,4 km/h (2 Bft) 91,49 %
30.06.2021 14:46 16,3 C 15,6 C 16,7 C 96 % 1012,2 hPa 0,0 l/m 0 min 2 min 140 W/m 6,4 km/h (2 Bft) 95,74 %
30.06.2021 14:48 16,3 C 16,1 C 16,7 C 96 % 1012,1 hPa 0,0 l/m 0 min 0 min 156 W/m 6,4 km/h (2 Bft) 95,74 %
30.06.2021 14:50 16,3 C 16,1 C 16,7 C 96 % 1012,1 hPa 0,0 l/m 0 min 0 min 168 W/m 6,4 km/h (2 Bft) 95,65 %
30.06.2021 14:52 16,3 C 16,1 C 16,7 C 96 % 1012,1 hPa 0,0 l/m 0 min 0 min 176 W/m 6,4 km/h (2 Bft) 97,87 %
30.06.2021 14:54 16,2 C 16,1 C 16,7 C 96 % 1012,1 hPa 0,0 l/m 0 min 0 min 179 W/m 6,4 km/h (2 Bft) 95,74 %
30.06.2021 14:56 16,1 C 16,1 C 16,7 C 96 % 1012,1 hPa 0,0 l/m 0 min 0 min 190 W/m 6,4 km/h (2 Bft) 97,87 %
30.06.2021 14:58 16,2 C 16,1 C 16,7 C 96 % 1012,2 hPa 0,0 l/m 0 min 0 min 187 W/m 9,7 km/h (2 Bft) 97,87 %
30.06.2021 15:00 16,3 C 16,1 C 16,7 C 96 % 1012,2 hPa 0,0 l/m 0 min 0 min 165 W/m 6,4 km/h (2 Bft) 97,87 %
30.06.2021 15:02 16,3 C 16,1 C 16,7 C 96 % 1012,3 hPa 0,0 l/m 0 min 0 min 147 W/m 12,9 km/h (3 Bft) 97,83 %
30.06.2021 15:04 16,3 C 16,7 C 16,7 C 96 % 1012,3 hPa 0,0 l/m 0 min 0 min 174 W/m 6,4 km/h (2 Bft) 95,74 %
30.06.2021 15:06 16,3 C 16,7 C 16,7 C 96 % 1012,2 hPa 0,0 l/m 0 min 0 min 199 W/m 12,9 km/h (3 Bft) 97,87 %
30.06.2021 15:08 16,3 C 16,7 C 16,7 C 96 % 1012,2 hPa 0,0 l/m 0 min 0 min 210 W/m 6,4 km/h (2 Bft) 97,87 %
30.06.2021 15:10 16,4 C 16,7 C 16,7 C 96 % 1012,2 hPa 0,0 l/m 0 min 0 min 255 W/m 3,2 km/h (1 Bft) 100,00 %
30.06.2021 15:12 16,4 C 17,2 C 17,3 C 96 % 1012,2 hPa 0,0 l/m 0 min 0 min 305 W/m 6,4 km/h (2 Bft) 98,11 %
30.06.2021 15:14 16,5 C 17,2 C 17,3 C 96 % 1012,1 hPa 0,0 l/m 0 min 0 min 330 W/m 6,4 km/h (2 Bft) 97,87 %
30.06.2021 15:16 16,6 C 17,8 C 17,3 C 96 % 1012,1 hPa 0,0 l/m 0 min 0 min 369 W/m 3,2 km/h (1 Bft) 100,00 %
30.06.2021 15:18 16,8 C 18,3 C 17,8 C 96 % 1012,2 hPa 0,0 l/m 0 min 0 min 392 W/m 9,7 km/h (2 Bft) 100,00 %
30.06.2021 15:20 16,8 C 18,3 C 17,8 C 96 % 1012,2 hPa 0,0 l/m 0 min 0 min 376 W/m 16,1 km/h (3 Bft) 97,83 %
30.06.2021 15:22 16,9 C 18,3 C 18,4 C 96 % 1012,2 hPa 0,0 l/m 0 min 0 min 324 W/m 12,9 km/h (3 Bft) 100,00 %
30.06.2021 15:24 16,9 C 18,3 C 18,4 C 96 % 1012,3 hPa 0,0 l/m 0 min 0 min 260 W/m 9,7 km/h (2 Bft) 97,87 %
30.06.2021 15:26 17,0 C 17,8 C 18,4 C 95 % 1012,2 hPa 0,0 l/m 0 min 0 min 228 W/m 6,4 km/h (2 Bft) 100,00 %
30.06.2021 15:28 17,1 C 17,8 C 18,4 C 95 % 1012,3 hPa 0,0 l/m 0 min 0 min 205 W/m 6,4 km/h (2 Bft) 100,00 %
30.06.2021 15:30 17,0 C 17,2 C 18,4 C 95 % 1012,3 hPa 0,0 l/m 0 min 0 min 186 W/m 16,1 km/h (3 Bft) 100,00 %
30.06.2021 15:32 17,1 C 17,2 C 17,8 C 94 % 1012,2 hPa 0,0 l/m 0 min 0 min 182 W/m 6,4 km/h (2 Bft) 97,87 %
30.06.2021 15:34 17,0 C 17,2 C 17,8 C 94 % 1012,3 hPa 0,0 l/m 0 min 0 min 171 W/m 6,4 km/h (2 Bft) 100,00 %
30.06.2021 15:36 17,1 C 17,2 C 17,8 C 94 % 1012,2 hPa 0,0 l/m 0 min 0 min 119 W/m 9,7 km/h (2 Bft) 100,00 %
30.06.2021 15:38 17,1 C 17,2 C 17,8 C 94 % 1012,2 hPa 0,0 l/m 0 min 0 min 73 W/m 3,2 km/h (1 Bft) 100,00 %
30.06.2021 15:40 17,1 C 17,2 C 17,8 C 93 % 1012,2 hPa 0,0 l/m 0 min 0 min 78 W/m 9,7 km/h (2 Bft) 100,00 %
30.06.2021 15:42 17,0 C 16,7 C 17,8 C 93 % 1012,2 hPa 0,0 l/m 0 min 0 min 103 W/m 16,1 km/h (3 Bft) 100,00 %
30.06.2021 15:44 17,0 C 16,7 C 17,8 C 93 % 1012,3 hPa 0,0 l/m 0 min 0 min 119 W/m 3,2 km/h (1 Bft) 97,87 %
30.06.2021 15:46 17,0 C 16,7 C 17,8 C 93 % 1012,3 hPa 0,0 l/m 0 min 0 min 131 W/m 6,4 km/h (2 Bft) 100,00 %
30.06.2021 15:48 17,0 C 16,7 C 17,8 C 93 % 1012,3 hPa 0,0 l/m 0 min 0 min 159 W/m 12,9 km/h (3 Bft) 100,00 %
30.06.2021 15:50 17,0 C 17,2 C 17,8 C 93 % 1012,3 hPa 0,0 l/m 0 min 0 min 192 W/m 6,4 km/h (2 Bft) 100,00 %
30.06.2021 15:52 17,1 C 17,2 C 17,8 C 93 % 1012,3 hPa 0,0 l/m 0 min 0 min 218 W/m 6,4 km/h (2 Bft) 100,00 %
30.06.2021 15:54 17,1 C 17,8 C 17,8 C 93 % 1012,3 hPa 0,0 l/m 0 min 0 min 241 W/m 6,4 km/h (2 Bft) 100,00 %
30.06.2021 15:56 17,1 C 17,8 C 18,4 C 92 % 1012,3 hPa 0,0 l/m 0 min 0 min 260 W/m 6,4 km/h (2 Bft) 100,00 %
30.06.2021 15:58 17,1 C 17,8 C 18,4 C 92 % 1012,3 hPa 0,0 l/m 0 min 0 min 267 W/m 6,4 km/h (2 Bft) 100,00 %
30.06.2021 16:00 17,2 C 17,8 C 18,4 C 92 % 1012,3 hPa 0,0 l/m 0 min 0 min 261 W/m 3,2 km/h (1 Bft) 100,00 %
30.06.2021 16:02 17,3 C 17,8 C 18,4 C 92 % 1012,3 hPa 0,0 l/m 0 min 0 min 237 W/m 12,9 km/h (3 Bft) 97,87 %
30.06.2021 16:04 17,3 C 17,8 C 18,4 C 92 % 1012,2 hPa 0,0 l/m 0 min 0 min 219 W/m 12,9 km/h (3 Bft) 100,00 %
30.06.2021 16:06 17,4 C 17,8 C 18,4 C 91 % 1012,2 hPa 0,0 l/m 0 min 0 min 217 W/m 6,4 km/h (2 Bft) 100,00 %
30.06.2021 16:08 17,4 C 17,8 C 18,4 C 91 % 1012,2 hPa 0,0 l/m 0 min 0 min 240 W/m 9,7 km/h (2 Bft) 97,83 %
30.06.2021 16:10 17,4 C 17,8 C 18,4 C 91 % 1012,2 hPa 0,0 l/m 0 min 0 min 304 W/m 12,9 km/h (3 Bft) 100,00 %
30.06.2021 16:12 17,4 C 17,8 C 18,4 C 91 % 1012,2 hPa 0,0 l/m 0 min 0 min 325 W/m 6,4 km/h (2 Bft) 100,00 %
30.06.2021 16:14 17,5 C 18,3 C 18,4 C 91 % 1012,2 hPa 0,0 l/m 0 min 0 min 276 W/m 6,4 km/h (2 Bft) 100,00 %
30.06.2021 16:16 17,5 C 18,3 C 18,9 C 91 % 1012,2 hPa 0,0 l/m 0 min 0 min 240 W/m 6,4 km/h (2 Bft) 100,00 %
30.06.2021 16:18 17,5 C 18,3 C 18,9 C 91 % 1012,2 hPa 0,0 l/m 0 min 0 min 215 W/m 16,1 km/h (3 Bft) 97,87 %
30.06.2021 16:20 17,5 C 17,8 C 18,4 C 90 % 1012,2 hPa 0,0 l/m 0 min 0 min 196 W/m 16,1 km/h (3 Bft) 100,00 %
30.06.2021 16:22 17,5 C 17,8 C 18,4 C 90 % 1012,3 hPa 0,0 l/m 0 min 0 min 183 W/m 12,9 km/h (3 Bft) 97,87 %
30.06.2021 16:24 17,5 C 17,8 C 18,4 C 90 % 1012,3 hPa 0,0 l/m 0 min 0 min 136 W/m 12,9 km/h (3 Bft) 100,00 %
30.06.2021 16:26 17,5 C 17,8 C 18,4 C 90 % 1012,4 hPa 0,0 l/m 0 min 0 min 99 W/m 6,4 km/h (2 Bft) 100,00 %
30.06.2021 16:28 17,5 C 17,2 C 18,4 C 90 % 1012,3 hPa 0,0 l/m 0 min 0 min 90 W/m 6,4 km/h (2 Bft) 97,87 %
30.06.2021 16:30 17,5 C 17,2 C 18,4 C 90 % 1012,3 hPa 0,0 l/m 0 min 0 min 87 W/m 6,4 km/h (2 Bft) 100,00 %
30.06.2021 16:32 17,5 C 17,2 C 17,8 C 91 % 1012,4 hPa 0,0 l/m 0 min 0 min 77 W/m 9,7 km/h (2 Bft) 100,00 %
30.06.2021 16:34 17,5 C 17,2 C 17,8 C 90 % 1012,3 hPa 0,0 l/m 0 min 0 min 64 W/m 12,9 km/h (3 Bft) 100,00 %
30.06.2021 16:36 17,4 C 16,7 C 17,8 C 91 % 1012,4 hPa 0,0 l/m 0 min 0 min 55 W/m 9,7 km/h (2 Bft) 100,00 %
30.06.2021 16:38 17,4 C 16,7 C 17,8 C 90 % 1012,3 hPa 0,0 l/m 0 min 0 min 48 W/m 3,2 km/h (1 Bft) 97,87 %
30.06.2021 16:40 17,4 C 16,7 C 17,3 C 90 % 1012,4 hPa 0,0 l/m 0 min 0 min 44 W/m 16,1 km/h (3 Bft) 100,00 %
30.06.2021 16:42 17,2 C 16,7 C 17,3 C 90 % 1012,4 hPa 0,0 l/m 0 min 0 min 40 W/m 9,7 km/h (2 Bft) 100,00 %
30.06.2021 16:44 17,2 C 16,7 C 17,3 C 90 % 1012,4 hPa 0,0 l/m 0 min 0 min 37 W/m 9,7 km/h (2 Bft) 100,00 %
30.06.2021 16:46 17,1 C 16,1 C 17,3 C 91 % 1012,4 hPa 0,0 l/m 0 min 0 min 34 W/m 12,9 km/h (3 Bft) 97,87 %
30.06.2021 16:48 17,0 C 16,1 C 17,3 C 91 % 1012,5 hPa 0,0 l/m 0 min 0 min 32 W/m 16,1 km/h (3 Bft) 97,87 %
30.06.2021 16:50 17,0 C 16,1 C 16,7 C 91 % 1012,5 hPa 0,0 l/m 0 min 2 min 32 W/m 12,9 km/h (3 Bft) 97,87 %
30.06.2021 16:52 16,9 C 16,1 C 16,7 C 91 % 1012,5 hPa 0,0 l/m 0 min 2 min 27 W/m 9,7 km/h (2 Bft) 97,87 %
30.06.2021 16:54 16,9 C 15,6 C 16,7 C 92 % 1012,5 hPa 0,0 l/m 0 min 2 min 25 W/m 9,7 km/h (2 Bft) 100,00 %
30.06.2021 16:56 16,8 C 15,6 C 16,1 C 92 % 1012,5 hPa 0,0 l/m 0 min 0 min 25 W/m 9,7 km/h (2 Bft) 100,00 %
30.06.2021 16:58 16,8 C 15,6 C 16,1 C 92 % 1012,5 hPa 0,0 l/m 0 min 2 min 23 W/m 6,4 km/h (2 Bft) 100,00 %
30.06.2021 17:00 16,7 C 15,6 C 16,1 C 92 % 1012,5 hPa 0,0 l/m 0 min 2 min 23 W/m 9,7 km/h (2 Bft) 95,74 %
30.06.2021 17:02 16,6 C 15,6 C 16,1 C 93 % 1012,6 hPa 0,0 l/m 0 min 2 min 24 W/m 12,9 km/h (3 Bft) 100,00 %
30.06.2021 17:04 16,6 C 15,6 C 16,1 C 93 % 1012,5 hPa 0,0 l/m 0 min 2 min 27 W/m 6,4 km/h (2 Bft) 97,87 %
30.06.2021 17:06 16,5 C 15,6 C 16,1 C 93 % 1012,5 hPa 0,0 l/m 0 min 2 min 35 W/m 9,7 km/h (2 Bft) 97,87 %
30.06.2021 17:08 16,4 C 15,6 C 16,1 C 93 % 1012,6 hPa 0,0 l/m 0 min 2 min 45 W/m 12,9 km/h (3 Bft) 93,62 %
30.06.2021 17:10 16,4 C 15,6 C 16,1 C 94 % 1012,6 hPa 0,0 l/m 0 min 2 min 57 W/m 6,4 km/h (2 Bft) 95,65 %
30.06.2021 17:12 16,3 C 15,6 C 16,1 C 94 % 1012,5 hPa 0,0 l/m 0 min 2 min 71 W/m 19,3 km/h (3 Bft) 95,74 %
30.06.2021 17:14 16,2 C 15,6 C 16,1 C 94 % 1012,6 hPa 0,0 l/m 0 min 2 min 89 W/m 16,1 km/h (3 Bft) 93,62 %
30.06.2021 17:16 16,2 C 15,6 C 16,1 C 95 % 1012,6 hPa 0,0 l/m 0 min 0 min 109 W/m 6,4 km/h (2 Bft) 93,62 %
30.06.2021 17:18 16,2 C 15,6 C 16,1 C 95 % 1012,6 hPa 0,0 l/m 0 min 0 min 140 W/m 12,9 km/h (3 Bft) 95,74 %
30.06.2021 17:20 16,1 C 15,6 C 16,1 C 95 % 1012,6 hPa 0,0 l/m 0 min 0 min 161 W/m 16,1 km/h (3 Bft) 93,62 %
30.06.2021 17:22 16,1 C 15,6 C 16,1 C 95 % 1012,5 hPa 0,0 l/m 0 min 0 min 172 W/m 12,9 km/h (3 Bft) 95,65 %
30.06.2021 17:24 16,1 C 15,6 C 16,1 C 96 % 1012,6 hPa 0,0 l/m 0 min 0 min 182 W/m 9,7 km/h (2 Bft) 95,74 %
30.06.2021 17:26 16,1 C 16,1 C 16,1 C 96 % 1012,5 hPa 0,0 l/m 0 min 0 min 181 W/m 6,4 km/h (2 Bft) 95,74 %
30.06.2021 17:28 16,1 C 16,1 C 16,1 C 96 % 1012,5 hPa 0,0 l/m 0 min 0 min 145 W/m 12,9 km/h (3 Bft) 95,74 %
30.06.2021 17:30 16,1 C 15,6 C 16,1 C 96 % 1012,6 hPa 0,0 l/m 0 min 0 min 128 W/m 12,9 km/h (3 Bft) 95,74 %
30.06.2021 17:32 16,1 C 15,6 C 16,1 C 96 % 1012,6 hPa 0,0 l/m 0 min 0 min 135 W/m 9,7 km/h (2 Bft) 95,74 %
30.06.2021 17:34 16,1 C 16,1 C 16,1 C 96 % 1012,6 hPa 0,0 l/m 0 min 0 min 140 W/m 6,4 km/h (2 Bft) 95,65 %
30.06.2021 17:36 16,1 C 16,1 C 16,1 C 97 % 1012,5 hPa 0,0 l/m 0 min 0 min 155 W/m 6,4 km/h (2 Bft) 93,62 %
30.06.2021 17:38 16,1 C 16,1 C 16,1 C 97 % 1012,5 hPa 0,0 l/m 0 min 0 min 147 W/m 12,9 km/h (3 Bft) 93,62 %
30.06.2021 17:40 16,1 C 16,1 C 16,1 C 97 % 1012,5 hPa 0,0 l/m 0 min 0 min 133 W/m 9,7 km/h (2 Bft) 93,62 %
30.06.2021 17:42 16,0 C 16,1 C 16,1 C 97 % 1012,5 hPa 0,0 l/m 0 min 0 min 127 W/m 6,4 km/h (2 Bft) 95,74 %
30.06.2021 17:44 16,1 C 16,1 C 16,1 C 97 % 1012,5 hPa 0,0 l/m 0 min 0 min 133 W/m 6,4 km/h (2 Bft) 95,74 %
30.06.2021 17:46 16,1 C 16,1 C 16,1 C 97 % 1012,5 hPa 0,0 l/m 0 min 0 min 153 W/m 6,4 km/h (2 Bft) 93,48 %
30.06.2021 17:48 16,1 C 16,1 C 16,1 C 97 % 1012,4 hPa 0,0 l/m 0 min 0 min 177 W/m 6,4 km/h (2 Bft) 95,74 %
30.06.2021 17:50 16,1 C 16,1 C 16,7 C 97 % 1012,4 hPa 0,0 l/m 0 min 0 min 193 W/m 6,4 km/h (2 Bft) 95,74 %
30.06.2021 17:52 16,2 C 16,7 C 16,7 C 97 % 1012,5 hPa 0,0 l/m 0 min 0 min 211 W/m 9,7 km/h (2 Bft) 95,74 %
30.06.2021 17:54 16,3 C 16,7 C 16,7 C 97 % 1012,4 hPa 0,0 l/m 0 min 0 min 222 W/m 9,7 km/h (2 Bft) 95,74 %
30.06.2021 17:56 16,3 C 16,7 C 16,7 C 97 % 1012,4 hPa 0,0 l/m 0 min 0 min 222 W/m 9,7 km/h (2 Bft) 97,87 %
30.06.2021 17:58 16,4 C 16,7 C 16,7 C 97 % 1012,4 hPa 0,0 l/m 0 min 0 min 216 W/m 6,4 km/h (2 Bft) 97,83 %
30.06.2021 18:00 16,4 C 16,7 C 17,3 C 97 % 1012,4 hPa 0,0 l/m 0 min 0 min 213 W/m 9,7 km/h (2 Bft) 95,74 %
30.06.2021 18:02 16,4 C 16,7 C 17,3 C 97 % 1012,4 hPa 0,0 l/m 0 min 0 min 210 W/m 12,9 km/h (3 Bft) 95,74 %
30.06.2021 18:04 16,4 C 16,7 C 17,3 C 97 % 1012,4 hPa 0,0 l/m 0 min 0 min 196 W/m 6,4 km/h (2 Bft) 100,00 %
30.06.2021 18:08 16,5 C 16,7 C 17,3 C 96 % 1012,4 hPa 0,0 l/m 0 min 0 min 163 W/m 6,4 km/h (2 Bft) 100,00 %
30.06.2021 18:10 16,5 C 16,7 C 17,3 C 96 % 1012,4 hPa 0,0 l/m 0 min 0 min 160 W/m 6,4 km/h (2 Bft) 100,00 %
30.06.2021 18:12 16,5 C 16,7 C 17,3 C 96 % 1012,3 hPa 0,0 l/m 0 min 0 min 164 W/m 12,9 km/h (3 Bft) 97,92 %
30.06.2021 18:14 16,6 C 16,7 C 17,3 C 96 % 1012,4 hPa 0,0 l/m 0 min 0 min 164 W/m 12,9 km/h (3 Bft) 100,00 %
30.06.2021 18:16 16,6 C 16,7 C 17,3 C 96 % 1012,3 hPa 0,0 l/m 0 min 0 min 179 W/m 9,7 km/h (2 Bft) 100,00 %
30.06.2021 18:18 16,6 C 16,7 C 17,3 C 96 % 1012,4 hPa 0,0 l/m 0 min 0 min 188 W/m 12,9 km/h (3 Bft) 97,87 %
30.06.2021 18:20 16,5 C 16,7 C 17,3 C 96 % 1012,4 hPa 0,0 l/m 0 min 0 min 185 W/m 12,9 km/h (3 Bft) 100,00 %
30.06.2021 18:22 16,5 C 16,7 C 17,3 C 95 % 1012,4 hPa 0,0 l/m 0 min 0 min 184 W/m 6,4 km/h (2 Bft) 100,00 %
30.06.2021 18:24 16,5 C 16,7 C 17,3 C 95 % 1012,4 hPa 0,0 l/m 0 min 0 min 175 W/m 12,9 km/h (3 Bft) 100,00 %
30.06.2021 18:26 16,5 C 16,7 C 17,3 C 95 % 1012,4 hPa 0,0 l/m 0 min 0 min 161 W/m 12,9 km/h (3 Bft) 100,00 %
30.06.2021 18:28 16,5 C 16,7 C 17,3 C 95 % 1012,4 hPa 0,0 l/m 0 min 0 min 148 W/m 9,7 km/h (2 Bft) 100,00 %
30.06.2021 18:30 16,5 C 16,7 C 17,3 C 95 % 1012,4 hPa 0,0 l/m 0 min 0 min 134 W/m 9,7 km/h (2 Bft) 100,00 %
30.06.2021 18:32 16,6 C 16,7 C 17,3 C 95 % 1012,4 hPa 0,0 l/m 0 min 0 min 102 W/m 6,4 km/h (2 Bft) 100,00 %
30.06.2021 18:34 16,6 C 16,7 C 17,3 C 95 % 1012,4 hPa 0,0 l/m 0 min 0 min 63 W/m 9,7 km/h (2 Bft) 100,00 %
30.06.2021 18:36 16,6 C 16,1 C 16,7 C 95 % 1012,4 hPa 0,0 l/m 0 min 0 min 55 W/m 12,9 km/h (3 Bft) 97,87 %
30.06.2021 18:38 16,5 C 16,1 C 16,7 C 95 % 1012,4 hPa 0,0 l/m 0 min 0 min 85 W/m 6,4 km/h (2 Bft) 100,00 %
30.06.2021 18:40 16,5 C 16,1 C 16,7 C 95 % 1012,4 hPa 0,0 l/m 0 min 0 min 95 W/m 12,9 km/h (3 Bft) 100,00 %
30.06.2021 18:42 16,5 C 16,1 C 16,7 C 95 % 1012,4 hPa 0,0 l/m 0 min 0 min 94 W/m 6,4 km/h (2 Bft) 100,00 %
30.06.2021 18:44 16,5 C 16,1 C 16,7 C 95 % 1012,4 hPa 0,0 l/m 0 min 0 min 96 W/m 12,9 km/h (3 Bft) 100,00 %
30.06.2021 18:46 16,5 C 16,1 C 16,7 C 95 % 1012,4 hPa 0,0 l/m 0 min 0 min 103 W/m 6,4 km/h (2 Bft) 100,00 %
30.06.2021 18:48 16,5 C 16,1 C 16,7 C 95 % 1012,5 hPa 0,0 l/m 0 min 0 min 107 W/m 16,1 km/h (3 Bft) 100,00 %
30.06.2021 18:50 16,4 C 16,1 C 16,7 C 95 % 1012,6 hPa 0,0 l/m 0 min 0 min 104 W/m 12,9 km/h (3 Bft) 100,00 %
30.06.2021 18:52 16,4 C 16,1 C 16,7 C 95 % 1012,5 hPa 0,0 l/m 0 min 0 min 101 W/m 9,7 km/h (2 Bft) 100,00 %
30.06.2021 18:54 16,4 C 16,1 C 16,7 C 95 % 1012,5 hPa 0,0 l/m 0 min 0 min 90 W/m 12,9 km/h (3 Bft) 100,00 %
30.06.2021 18:56 16,3 C 16,1 C 16,7 C 95 % 1012,5 hPa 0,0 l/m 0 min 0 min 81 W/m 6,4 km/h (2 Bft) 97,87 %
30.06.2021 18:58 16,3 C 15,6 C 16,7 C 95 % 1012,6 hPa 0,0 l/m 0 min 0 min 65 W/m 6,4 km/h (2 Bft) 100,00 %
30.06.2021 19:00 16,3 C 15,6 C 16,7 C 95 % 1012,5 hPa 0,0 l/m 0 min 0 min 44 W/m 12,9 km/h (3 Bft) 97,87 %
30.06.2021 19:02 16,3 C 15,6 C 16,7 C 95 % 1012,6 hPa 0,0 l/m 0 min 0 min 29 W/m 9,7 km/h (2 Bft) 100,00 %
30.06.2021 19:04 16,3 C 15,6 C 16,7 C 95 % 1012,6 hPa 0,0 l/m 0 min 2 min 32 W/m 12,9 km/h (3 Bft) 100,00 %
30.06.2021 19:06 16,3 C 15,6 C 16,1 C 95 % 1012,6 hPa 0,2 l/m 0 min 2 min 47 W/m 16,1 km/h (3 Bft) 100,00 %
30.06.2021 19:08 16,2 C 15,6 C 16,1 C 95 % 1012,6 hPa 0,0 l/m 0 min 2 min 81 W/m 6,4 km/h (2 Bft) 100,00 %
30.06.2021 19:10 16,1 C 15,6 C 16,1 C 95 % 1012,6 hPa 0,0 l/m 0 min 2 min 111 W/m 6,4 km/h (2 Bft) 100,00 %
30.06.2021 19:12 16,1 C 15,6 C 16,1 C 96 % 1012,5 hPa 0,0 l/m 0 min 0 min 136 W/m 6,4 km/h (2 Bft) 100,00 %
30.06.2021 19:14 16,1 C 15,6 C 16,1 C 96 % 1012,5 hPa 0,0 l/m 0 min 0 min 143 W/m 12,9 km/h (3 Bft) 100,00 %
30.06.2021 19:16 16,1 C 15,6 C 16,1 C 96 % 1012,6 hPa 0,0 l/m 0 min 0 min 135 W/m 6,4 km/h (2 Bft) 100,00 %
30.06.2021 19:18 16,1 C 15,6 C 16,1 C 96 % 1012,6 hPa 0,0 l/m 0 min 0 min 103 W/m 9,7 km/h (2 Bft) 100,00 %
30.06.2021 19:20 16,1 C 15,6 C 16,1 C 96 % 1012,6 hPa 0,0 l/m 0 min 0 min 74 W/m 9,7 km/h (2 Bft) 100,00 %
30.06.2021 19:22 16,1 C 15,6 C 16,1 C 96 % 1012,6 hPa 0,0 l/m 0 min 0 min 70 W/m 6,4 km/h (2 Bft) 100,00 %
30.06.2021 19:24 16,1 C 15,6 C 16,1 C 96 % 1012,6 hPa 0,0 l/m 0 min 0 min 76 W/m 12,9 km/h (3 Bft) 100,00 %
30.06.2021 19:26 16,0 C 15,6 C 15,6 C 96 % 1012,6 hPa 0,0 l/m 0 min 0 min 72 W/m 16,1 km/h (3 Bft) 100,00 %
30.06.2021 19:28 16,0 C 15,6 C 16,1 C 96 % 1012,6 hPa 0,0 l/m 0 min 0 min 61 W/m 16,1 km/h (3 Bft) 100,00 %
30.06.2021 19:30 16,0 C 15,6 C 15,6 C 96 % 1012,7 hPa 0,0 l/m 0 min 0 min 61 W/m 12,9 km/h (3 Bft) 100,00 %
30.06.2021 19:32 16,0 C 15,6 C 16,1 C 96 % 1012,6 hPa 0,0 l/m 0 min 0 min 58 W/m 6,4 km/h (2 Bft) 100,00 %
30.06.2021 19:34 16,0 C 15,6 C 16,1 C 96 % 1012,7 hPa 0,0 l/m 0 min 0 min 47 W/m 12,9 km/h (3 Bft) 100,00 %
30.06.2021 19:36 16,0 C 15,6 C 16,1 C 97 % 1012,6 hPa 0,0 l/m 0 min 0 min 39 W/m 9,7 km/h (2 Bft) 100,00 %
30.06.2021 19:38 16,0 C 15,6 C 16,1 C 97 % 1012,7 hPa 0,0 l/m 0 min 0 min 37 W/m 6,4 km/h (2 Bft) 100,00 %
30.06.2021 19:40 16,0 C 15,6 C 16,1 C 97 % 1012,7 hPa 0,0 l/m 0 min 0 min 37 W/m 6,4 km/h (2 Bft) 100,00 %
30.06.2021 19:42 16,0 C 15,6 C 16,1 C 97 % 1012,7 hPa 0,0 l/m 0 min 0 min 35 W/m 16,1 km/h (3 Bft) 100,00 %
30.06.2021 19:44 16,0 C 15,6 C 16,1 C 97 % 1012,7 hPa 0,0 l/m 0 min 0 min 38 W/m 6,4 km/h (2 Bft) 100,00 %
30.06.2021 19:46 16,0 C 15,6 C 16,1 C 97 % 1012,7 hPa 0,0 l/m 0 min 0 min 42 W/m 3,2 km/h (1 Bft) 100,00 %
30.06.2021 19:48 16,0 C 15,6 C 16,1 C 97 % 1012,8 hPa 0,0 l/m 0 min 0 min 42 W/m 3,2 km/h (1 Bft) 97,87 %
30.06.2021 19:50 16,0 C 15,6 C 16,1 C 97 % 1012,8 hPa 0,0 l/m 0 min 0 min 37 W/m 3,2 km/h (1 Bft) 100,00 %
30.06.2021 19:52 16,0 C 15,6 C 16,1 C 97 % 1012,8 hPa 0,0 l/m 0 min 0 min 24 W/m 6,4 km/h (2 Bft) 97,87 %
30.06.2021 19:54 16,0 C 15,6 C 16,1 C 97 % 1012,8 hPa 0,0 l/m 0 min 0 min 13 W/m 3,2 km/h (1 Bft) 93,62 %
30.06.2021 19:56 16,1 C 15,6 C 16,1 C 97 % 1012,8 hPa 0,0 l/m 0 min 0 min 9 W/m 3,2 km/h (1 Bft) 93,48 %
30.06.2021 19:58 16,1 C 15,6 C 16,1 C 97 % 1012,9 hPa 0,0 l/m 0 min 0 min 9 W/m 3,2 km/h (1 Bft) 93,62 %
30.06.2021 20:00 16,0 C 15,6 C 16,1 C 97 % 1012,9 hPa 0,0 l/m 0 min 0 min 8 W/m 6,4 km/h (2 Bft) 97,87 %
30.06.2021 20:02 16,0 C 15,6 C 16,1 C 97 % 1012,9 hPa 0,0 l/m 0 min 0 min 7 W/m 6,4 km/h (2 Bft) 97,87 %
30.06.2021 20:04 16,0 C 15,6 C 16,1 C 97 % 1013,0 hPa 0,0 l/m 0 min 0 min 8 W/m 9,7 km/h (2 Bft) 95,74 %
30.06.2021 20:06 16,0 C 15,6 C 16,1 C 97 % 1013,0 hPa 0,0 l/m 0 min 0 min 10 W/m 12,9 km/h (3 Bft) 97,87 %
30.06.2021 20:08 15,9 C 15,6 C 16,1 C 97 % 1013,0 hPa 0,0 l/m 0 min 0 min 12 W/m 6,4 km/h (2 Bft) 97,83 %
30.06.2021 20:10 15,9 C 15,6 C 16,1 C 97 % 1013,0 hPa 0,0 l/m 0 min 0 min 11 W/m 6,4 km/h (2 Bft) 95,74 %
30.06.2021 20:12 15,9 C 15,6 C 16,1 C 97 % 1013,0 hPa 0,0 l/m 0 min 0 min 11 W/m 16,1 km/h (3 Bft) 93,62 %
30.06.2021 20:14 15,8 C 15,6 C 16,1 C 97 % 1013,0 hPa 0,0 l/m 0 min 0 min 11 W/m 3,2 km/h (1 Bft) 93,62 %
30.06.2021 20:16 15,8 C 15,6 C 16,1 C 97 % 1013,0 hPa 0,0 l/m 0 min 0 min 12 W/m 6,4 km/h (2 Bft) 93,62 %
30.06.2021 20:18 15,8 C 15,6 C 16,1 C 97 % 1013,0 hPa 0,0 l/m 0 min 0 min 11 W/m 6,4 km/h (2 Bft) 95,74 %
30.06.2021 20:20 15,8 C 15,6 C 16,1 C 97 % 1013,0 hPa 0,0 l/m 0 min 0 min 11 W/m 6,4 km/h (2 Bft) 95,65 %
30.06.2021 20:22 15,8 C 15,0 C 16,1 C 97 % 1013,1 hPa 0,0 l/m 0 min 0 min 11 W/m 9,7 km/h (2 Bft) 93,62 %
30.06.2021 20:24 15,8 C 15,0 C 16,1 C 97 % 1013,1 hPa 0,0 l/m 0 min 0 min 10 W/m 6,4 km/h (2 Bft) 95,74 %
30.06.2021 20:26 15,8 C 15,0 C 16,1 C 97 % 1013,2 hPa 0,0 l/m 0 min 0 min 9 W/m 9,7 km/h (2 Bft) 93,62 %
30.06.2021 20:28 15,7 C 15,0 C 16,1 C 97 % 1013,1 hPa 0,0 l/m 0 min 0 min 7 W/m 9,7 km/h (2 Bft) 93,62 %
30.06.2021 20:30 15,6 C 15,0 C 16,1 C 97 % 1013,2 hPa 0,0 l/m 0 min 0 min 7 W/m 19,3 km/h (3 Bft) 93,62 %
30.06.2021 20:32 15,6 C 15,0 C 16,1 C 97 % 1013,2 hPa 0,0 l/m 0 min 0 min 8 W/m 12,9 km/h (3 Bft) 91,30 %
30.06.2021 20:34 15,5 C 15,0 C 16,1 C 97 % 1013,2 hPa 0,0 l/m 0 min 0 min 9 W/m 12,9 km/h (3 Bft) 93,62 %
30.06.2021 20:36 15,4 C 15,0 C 15,6 C 96 % 1013,2 hPa 0,0 l/m 0 min 0 min 11 W/m 12,9 km/h (3 Bft) 95,74 %
30.06.2021 20:38 15,4 C 15,0 C 15,6 C 96 % 1013,2 hPa 0,0 l/m 0 min 0 min 12 W/m 19,3 km/h (3 Bft) 97,83 %
30.06.2021 20:40 15,4 C 15,0 C 15,6 C 96 % 1013,2 hPa 0,0 l/m 0 min 0 min 14 W/m 3,2 km/h (1 Bft) 93,62 %
30.06.2021 20:42 15,4 C 15,0 C 15,6 C 96 % 1013,2 hPa 0,0 l/m 0 min 0 min 14 W/m 9,7 km/h (2 Bft) 96,36 %
30.06.2021 20:44 15,4 C 15,0 C 16,1 C 96 % 1013,3 hPa 0,0 l/m 0 min 0 min 14 W/m 3,2 km/h (1 Bft) 93,62 %
30.06.2021 20:46 15,4 C 15,0 C 16,1 C 97 % 1013,3 hPa 0,0 l/m 0 min 0 min 14 W/m 9,7 km/h (2 Bft) 93,62 %
30.06.2021 20:48 15,4 C 15,0 C 16,1 C 97 % 1013,3 hPa 0,0 l/m 0 min 0 min 14 W/m 6,4 km/h (2 Bft) 95,65 %
30.06.2021 20:50 15,4 C 15,0 C 16,1 C 97 % 1013,4 hPa 0,0 l/m 0 min 0 min 14 W/m 6,4 km/h (2 Bft) 95,74 %
30.06.2021 20:52 15,4 C 15,0 C 16,1 C 97 % 1013,3 hPa 0,0 l/m 0 min 0 min 12 W/m 6,4 km/h (2 Bft) 93,62 %
30.06.2021 20:54 15,5 C 15,0 C 16,1 C 97 % 1013,3 hPa 0,0 l/m 0 min 0 min 11 W/m 6,4 km/h (2 Bft) 95,74 %
30.06.2021 20:56 15,4 C 15,0 C 16,1 C 97 % 1013,4 hPa 0,0 l/m 0 min 0 min 9 W/m 9,7 km/h (2 Bft) 95,74 %
30.06.2021 20:58 15,5 C 15,0 C 16,1 C 97 % 1013,4 hPa 0,0 l/m 0 min 0 min 9 W/m 6,4 km/h (2 Bft) 95,74 %
30.06.2021 21:00 15,5 C 15,0 C 16,1 C 97 % 1013,5 hPa 0,0 l/m 0 min 0 min 9 W/m 6,4 km/h (2 Bft) 97,87 %
30.06.2021 21:02 15,4 C 15,0 C 16,1 C 97 % 1013,4 hPa 0,0 l/m 0 min 0 min 11 W/m 12,9 km/h (3 Bft) 95,74 %
30.06.2021 21:04 15,4 C 15,0 C 16,1 C 97 % 1013,4 hPa 0,0 l/m 0 min 0 min 12 W/m 6,4 km/h (2 Bft) 97,87 %
30.06.2021 21:06 15,4 C 14,4 C 16,1 C 97 % 1013,4 hPa 0,0 l/m 0 min 0 min 12 W/m 12,9 km/h (3 Bft) 97,87 %
30.06.2021 21:08 15,3 C 14,4 C 16,1 C 97 % 1013,5 hPa 0,0 l/m 0 min 0 min 12 W/m 9,7 km/h (2 Bft) 95,74 %
30.06.2021 21:10 15,3 C 14,4 C 15,6 C 96 % 1013,5 hPa 0,0 l/m 0 min 0 min 10 W/m 6,4 km/h (2 Bft) 97,87 %
30.06.2021 21:12 15,3 C 14,4 C 15,6 C 96 % 1013,5 hPa 0,0 l/m 0 min 0 min 7 W/m 9,7 km/h (2 Bft) 97,83 %
30.06.2021 21:14 15,3 C 14,4 C 15,6 C 96 % 1013,6 hPa 0,0 l/m 0 min 0 min 5 W/m 6,4 km/h (2 Bft) 97,87 %
30.06.2021 21:16 15,3 C 14,4 C 15,6 C 96 % 1013,6 hPa 0,0 l/m 0 min 0 min 5 W/m 9,7 km/h (2 Bft) 95,74 %
30.06.2021 21:18 15,3 C 14,4 C 15,6 C 97 % 1013,6 hPa 0,0 l/m 0 min 0 min 5 W/m 6,4 km/h (2 Bft) 97,87 %
30.06.2021 21:20 15,3 C 14,4 C 15,6 C 97 % 1013,6 hPa 0,0 l/m 0 min 0 min 4 W/m 12,9 km/h (3 Bft) 95,74 %
30.06.2021 21:22 15,3 C 14,4 C 15,6 C 97 % 1013,6 hPa 0,0 l/m 0 min 0 min 0 W/m 9,7 km/h (2 Bft) 97,87 %
30.06.2021 21:24 15,2 C 14,4 C 15,6 C 97 % 1013,6 hPa 0,0 l/m 0 min 0 min 0 W/m 12,9 km/h (3 Bft) 95,65 %
30.06.2021 21:26 15,2 C 14,4 C 15,6 C 97 % 1013,6 hPa 0,0 l/m 0 min 0 min 0 W/m 16,1 km/h (3 Bft) 97,87 %
30.06.2021 21:28 15,1 C 14,4 C 15,6 C 97 % 1013,6 hPa 0,0 l/m 0 min 0 min 0 W/m 19,3 km/h (3 Bft) 97,87 %
30.06.2021 21:30 15,1 C 14,4 C 15,6 C 97 % 1013,6 hPa 0,0 l/m 0 min 0 min 0 W/m 12,9 km/h (3 Bft) 97,87 %
30.06.2021 21:32 15,1 C 14,4 C 15,6 C 97 % 1013,6 hPa 0,0 l/m 0 min 0 min 0 W/m 9,7 km/h (2 Bft) 97,87 %
30.06.2021 21:34 15,1 C 14,4 C 15,6 C 97 % 1013,7 hPa 0,0 l/m 0 min 0 min 0 W/m 6,4 km/h (2 Bft) 97,87 %
30.06.2021 21:36 15,1 C 14,4 C 15,6 C 97 % 1013,8 hPa 0,0 l/m 0 min 0 min 0 W/m 16,1 km/h (3 Bft) 95,65 %
30.06.2021 21:38 15,0 C 14,4 C 15,6 C 97 % 1013,9 hPa 0,0 l/m 0 min 0 min 0 W/m 12,9 km/h (3 Bft) 97,87 %
30.06.2021 21:40 15,0 C 14,4 C 15,6 C 97 % 1013,9 hPa 0,0 l/m 0 min 0 min 0 W/m 12,9 km/h (3 Bft) 97,37 %
30.06.2021 21:42 14,9 C 14,4 C 15,6 C 97 % 1013,9 hPa 0,0 l/m 0 min 0 min 0 W/m 19,3 km/h (3 Bft) 97,83 %
30.06.2021 21:44 14,9 C 13,9 C 15,0 C 97 % 1013,9 hPa 0,0 l/m 0 min 0 min 0 W/m 22,5 km/h (4 Bft) 97,87 %
30.06.2021 21:46 14,8 C 13,9 C 15,0 C 97 % 1013,9 hPa 0,0 l/m 0 min 0 min 0 W/m 16,1 km/h (3 Bft) 97,87 %
30.06.2021 21:48 14,8 C 13,9 C 15,0 C 97 % 1014,0 hPa 0,0 l/m 0 min 0 min 0 W/m 12,9 km/h (3 Bft) 95,74 %
30.06.2021 21:50 14,7 C 13,9 C 15,0 C 97 % 1014,0 hPa 0,0 l/m 0 min 0 min 0 W/m 16,1 km/h (3 Bft) 97,87 %
30.06.2021 21:52 14,7 C 13,9 C 15,6 C 97 % 1014,0 hPa 0,0 l/m 0 min 0 min 0 W/m 6,4 km/h (2 Bft) 97,87 %
30.06.2021 21:54 14,6 C 13,9 C 15,0 C 97 % 1013,9 hPa 0,0 l/m 0 min 0 min 0 W/m 6,4 km/h (2 Bft) 97,83 %
30.06.2021 21:56 14,6 C 13,9 C 15,6 C 97 % 1014,0 hPa 0,0 l/m 0 min 0 min 0 W/m 3,2 km/h (1 Bft) 95,74 %
30.06.2021 21:58 14,6 C 13,9 C 15,6 C 97 % 1014,0 hPa 0,0 l/m 0 min 0 min 0 W/m 12,9 km/h (3 Bft) 95,74 %
30.06.2021 22:00 14,6 C 13,9 C 15,6 C 97 % 1014,0 hPa 0,0 l/m 0 min 0 min 0 W/m 16,1 km/h (3 Bft) 97,87 %
30.06.2021 22:02 14,6 C 13,9 C 15,0 C 97 % 1014,0 hPa 0,0 l/m 0 min 0 min 0 W/m 9,7 km/h (2 Bft) 95,74 %
30.06.2021 22:04 14,6 C 13,9 C 15,6 C 97 % 1014,1 hPa 0,0 l/m 0 min 0 min 0 W/m 12,9 km/h (3 Bft) 97,87 %
30.06.2021 22:06 14,6 C 13,9 C 15,0 C 97 % 1014,1 hPa 0,0 l/m 0 min 0 min 0 W/m 9,7 km/h (2 Bft) 97,83 %
30.06.2021 22:08 14,6 C 13,9 C 15,0 C 97 % 1014,1 hPa 0,0 l/m 0 min 0 min 0 W/m 9,7 km/h (2 Bft) 97,87 %
30.06.2021 22:10 14,6 C 13,9 C 15,0 C 97 % 1014,1 hPa 0,0 l/m 0 min 0 min 0 W/m 6,4 km/h (2 Bft) 97,87 %
30.06.2021 22:12 14,6 C 13,9 C 15,0 C 97 % 1014,2 hPa 0,0 l/m 0 min 0 min 0 W/m 12,9 km/h (3 Bft) 95,74 %
30.06.2021 22:14 14,6 C 13,9 C 15,0 C 97 % 1014,2 hPa 0,0 l/m 0 min 0 min 0 W/m 6,4 km/h (2 Bft) 97,83 %
30.06.2021 22:16 14,6 C 13,9 C 15,0 C 97 % 1014,2 hPa 0,0 l/m 0 min 0 min 0 W/m 6,4 km/h (2 Bft) 95,74 %
30.06.2021 22:18 14,6 C 13,9 C 15,0 C 97 % 1014,2 hPa 0,0 l/m 0 min 0 min 0 W/m 12,9 km/h (3 Bft) 97,87 %
30.06.2021 22:20 14,5 C 13,9 C 15,0 C 97 % 1014,2 hPa 0,0 l/m 0 min 0 min 0 W/m 6,4 km/h (2 Bft) 98,18 %
30.06.2021 22:22 14,6 C 13,9 C 15,0 C 97 % 1014,2 hPa 0,0 l/m 0 min 0 min 0 W/m 3,2 km/h (1 Bft) 97,87 %
30.06.2021 22:24 14,6 C 13,9 C 15,0 C 97 % 1014,2 hPa 0,0 l/m 0 min 0 min 0 W/m 9,7 km/h (2 Bft) 97,83 %
30.06.2021 22:26 14,5 C 13,9 C 15,0 C 97 % 1014,3 hPa 0,0 l/m 0 min 0 min 0 W/m 12,9 km/h (3 Bft) 97,87 %
30.06.2021 22:28 14,6 C 13,9 C 15,0 C 97 % 1014,2 hPa 0,0 l/m 0 min 0 min 0 W/m 6,4 km/h (2 Bft) 97,87 %
30.06.2021 22:30 14,5 C 13,9 C 15,0 C 97 % 1014,2 hPa 0,0 l/m 0 min 0 min 0 W/m 3,2 km/h (1 Bft) 97,87 %
30.06.2021 22:32 14,5 C 13,9 C 15,0 C 97 % 1014,2 hPa 0,0 l/m 0 min 0 min 0 W/m 16,1 km/h (3 Bft) 97,87 %
30.06.2021 22:34 14,5 C 13,9 C 15,0 C 97 % 1014,2 hPa 0,0 l/m 0 min 0 min 0 W/m 6,4 km/h (2 Bft) 97,44 %
30.06.2021 22:36 14,5 C 13,9 C 15,0 C 98 % 1014,2 hPa 0,0 l/m 0 min 0 min 0 W/m 6,4 km/h (2 Bft) 97,87 %
30.06.2021 22:38 14,5 C 13,9 C 15,0 C 98 % 1014,2 hPa 0,0 l/m 0 min 0 min 0 W/m 3,2 km/h (1 Bft) 97,87 %
30.06.2021 22:40 14,5 C 13,9 C 15,0 C 98 % 1014,2 hPa 0,0 l/m 0 min 0 min 0 W/m 6,4 km/h (2 Bft) 100,00 %
30.06.2021 22:42 14,5 C 13,9 C 15,0 C 98 % 1014,2 hPa 0,0 l/m 0 min 0 min 0 W/m 9,7 km/h (2 Bft) 97,87 %
30.06.2021 22:44 14,5 C 13,9 C 15,0 C 98 % 1014,2 hPa 0,0 l/m 0 min 0 min 0 W/m 6,4 km/h (2 Bft) 97,87 %
30.06.2021 22:46 14,5 C 13,9 C 15,0 C 98 % 1014,2 hPa 0,0 l/m 0 min 2 min 0 W/m 6,4 km/h (2 Bft) 98,21 %
30.06.2021 22:48 14,5 C 13,9 C 15,0 C 98 % 1014,2 hPa 0,0 l/m 0 min 0 min 0 W/m 6,4 km/h (2 Bft) 97,83 %
30.06.2021 22:50 14,5 C 13,9 C 15,0 C 98 % 1014,1 hPa 0,0 l/m 0 min 0 min 0 W/m 16,1 km/h (3 Bft) 95,83 %
30.06.2021 22:52 14,5 C 13,9 C 15,0 C 98 % 1014,1 hPa 0,0 l/m 0 min 0 min 0 W/m 12,9 km/h (3 Bft) 93,62 %
30.06.2021 22:54 14,5 C 13,9 C 15,0 C 98 % 1014,2 hPa 0,0 l/m 0 min 0 min 0 W/m 6,4 km/h (2 Bft) 93,62 %
30.06.2021 22:56 14,5 C 13,9 C 15,0 C 98 % 1014,2 hPa 0,0 l/m 0 min 0 min 0 W/m 6,4 km/h (2 Bft) 95,74 %
30.06.2021 22:58 14,5 C 13,9 C 15,0 C 98 % 1014,2 hPa 0,0 l/m 0 min 0 min 0 W/m 9,7 km/h (2 Bft) 95,65 %
30.06.2021 23:00 14,4 C 13,9 C 15,0 C 98 % 1014,2 hPa 0,0 l/m 0 min 0 min 0 W/m 6,4 km/h (2 Bft) 92,68 %
30.06.2021 23:02 14,4 C 13,9 C 15,0 C 98 % 1014,2 hPa 0,0 l/m 0 min 0 min 0 W/m 6,4 km/h (2 Bft) 93,62 %
30.06.2021 23:04 14,4 C 13,9 C 15,0 C 98 % 1014,2 hPa 0,0 l/m 0 min 0 min 0 W/m 3,2 km/h (1 Bft) 91,49 %
30.06.2021 23:06 14,4 C 13,9 C 15,0 C 98 % 1014,3 hPa 0,0 l/m 0 min 0 min 0 W/m 9,7 km/h (2 Bft) 95,74 %
30.06.2021 23:08 14,4 C 13,9 C 15,0 C 98 % 1014,2 hPa 0,0 l/m 0 min 0 min 0 W/m 6,4 km/h (2 Bft) 93,62 %
30.06.2021 23:10 14,4 C 13,9 C 15,0 C 98 % 1014,2 hPa 0,0 l/m 0 min 0 min 0 W/m 6,4 km/h (2 Bft) 93,62 %
30.06.2021 23:12 14,4 C 13,9 C 15,0 C 98 % 1014,2 hPa 0,0 l/m 0 min 0 min 0 W/m 6,4 km/h (2 Bft) 92,31 %
30.06.2021 23:14 14,4 C 13,9 C 15,0 C 98 % 1014,2 hPa 0,0 l/m 0 min 0 min 0 W/m 12,9 km/h (3 Bft) 93,48 %
30.06.2021 23:16 14,4 C 13,9 C 15,0 C 98 % 1014,2 hPa 0,0 l/m 0 min 0 min 0 W/m 9,7 km/h (2 Bft) 93,62 %
30.06.2021 23:18 14,4 C 13,9 C 15,0 C 98 % 1014,3 hPa 0,0 l/m 0 min 0 min 0 W/m 12,9 km/h (3 Bft) 93,62 %
30.06.2021 23:20 14,4 C 13,9 C 15,0 C 98 % 1014,2 hPa 0,0 l/m 0 min 0 min 0 W/m 6,4 km/h (2 Bft) 91,49 %
30.06.2021 23:22 14,4 C 13,9 C 15,0 C 98 % 1014,3 hPa 0,0 l/m 0 min 0 min 0 W/m 6,4 km/h (2 Bft) 93,62 %
30.06.2021 23:24 14,4 C 13,9 C 15,0 C 98 % 1014,3 hPa 0,0 l/m 0 min 0 min 0 W/m 12,9 km/h (3 Bft) 91,43 %
30.06.2021 23:26 14,3 C 13,9 C 15,0 C 98 % 1014,3 hPa 0,0 l/m 0 min 0 min 0 W/m 16,1 km/h (3 Bft) 94,64 %
30.06.2021 23:28 14,3 C 13,9 C 15,0 C 98 % 1014,3 hPa 0,0 l/m 0 min 0 min 0 W/m 9,7 km/h (2 Bft) 93,62 %
30.06.2021 23:30 14,3 C 13,9 C 15,0 C 98 % 1014,4 hPa 0,0 l/m 0 min 0 min 0 W/m 6,4 km/h (2 Bft) 95,74 %
30.06.2021 23:32 14,3 C 13,9 C 15,0 C 98 % 1014,3 hPa 0,0 l/m 0 min 0 min 0 W/m 9,7 km/h (2 Bft) 93,62 %
30.06.2021 23:34 14,2 C 13,9 C 15,0 C 98 % 1014,3 hPa 0,0 l/m 0 min 0 min 0 W/m 12,9 km/h (3 Bft) 95,65 %
30.06.2021 23:36 14,2 C 13,9 C 15,0 C 98 % 1014,3 hPa 0,0 l/m 0 min 0 min 0 W/m 16,1 km/h (3 Bft) 93,62 %
30.06.2021 23:38 14,2 C 13,9 C 15,0 C 98 % 1014,3 hPa 0,0 l/m 0 min 0 min 0 W/m 19,3 km/h (3 Bft) 91,49 %
30.06.2021 23:40 14,2 C 13,9 C 15,0 C 98 % 1014,3 hPa 0,0 l/m 0 min 0 min 0 W/m 9,7 km/h (2 Bft) 93,62 %
30.06.2021 23:42 14,2 C 13,9 C 15,0 C 98 % 1014,4 hPa 0,0 l/m 0 min 0 min 0 W/m 9,7 km/h (2 Bft) 95,74 %
30.06.2021 23:44 14,2 C 13,9 C 15,0 C 98 % 1014,4 hPa 0,0 l/m 0 min 0 min 0 W/m 6,4 km/h (2 Bft) 97,30 %
30.06.2021 23:46 14,2 C 13,3 C 15,0 C 98 % 1014,4 hPa 0,0 l/m 0 min 0 min 0 W/m 16,1 km/h (3 Bft) 95,74 %
30.06.2021 23:48 14,2 C 13,3 C 15,0 C 98 % 1014,4 hPa 0,0 l/m 0 min 0 min 0 W/m 6,4 km/h (2 Bft) 95,74 %
30.06.2021 23:50 14,2 C 13,3 C 15,0 C 98 % 1014,4 hPa 0,0 l/m 0 min 0 min 0 W/m 6,4 km/h (2 Bft) 95,74 %
30.06.2021 23:52 14,2 C 13,3 C 14,5 C 98 % 1014,5 hPa 0,0 l/m 0 min 0 min 0 W/m 12,9 km/h (3 Bft) 93,48 %
30.06.2021 23:54 14,1 C 13,3 C 15,0 C 98 % 1014,4 hPa 0,0 l/m 0 min 0 min 0 W/m 6,4 km/h (2 Bft) 97,87 %
30.06.2021 23:56 14,1 C 13,3 C 15,0 C 98 % 1014,4 hPa 0,2 l/m 0 min 0 min 0 W/m 3,2 km/h (1 Bft) 97,87 %
30.06.2021 23:58 14,1 C 13,3 C 15,0 C 98 % 1014,4 hPa 0,0 l/m 0 min 0 min 0 W/m 6,4 km/h (2 Bft) 96,08 %
_ Min-Zeit 23:54 23:46 23:52 16:20 04:40 - - - - 01:00 20:32
Minimum _ 14,1 C 13,3 C 14,5 C 90 % 1010,1 hPa - - - - 0,0 km/h (0 Bft) 91,30 %
_ Max-Zeit 16:14 11:46 11:44 02:28 23:52 00:34 10:38 00:08 11:46 13:24 00:00
Maximum _ 17,5 C 18,9 C 18,9 C 100 % 1014,5 hPa 0,4 l/m 2 min 4 min 485 W/m 22,5 km/h
N-NO (4 Bft)
100,00 %
Durchschnitt _ 15,8 C 15,4 C 16,2 C 97 % 1011,7 hPa #4,4 l/m #30 min. #3:42 h 131 W/m 8,0 km/h (2 Bft) 97,50 %
© 2021 W. Hausmann